Time,TemperatureF,DewpointF,PressureIn,WindDirection,WindDirectionDegrees,WindSpeedMPH,WindSpeedGustMPH,Humidity,HourlyPrecipIn,Conditions,Clouds,dailyrainin,SoftwareType,DateUTC
2013-08-29 00:00:00,70.3,42.8,26.69,SW,224,0.0,0.0,37,0.00,CLR,,0.00,WeatherDisplay:10.37,2013-08-29 04:00:00,
2013-08-29 00:01:00,70.3,42.8,26.69,SW,224,0.0,0.0,37,0.00,CLR,,0.00,WeatherDisplay:10.37,2013-08-29 04:01:00,
2013-08-29 00:02:00,70.2,43.4,26.69,SW,224,0.0,0.0,38,0.00,CLR,,0.00,WeatherDisplay:10.37,2013-08-29 04:02:00,
2013-08-29 00:04:00,70.2,43.4,26.69,SW,224,0.0,0.0,38,0.00,CLR,,0.00,WeatherDisplay:10.37,2013-08-29 04:04:00,
2013-08-29 00:05:00,70.2,43.4,0.00,SW,224,0.0,0.0,38,0.00,CLR,,0.00,WeatherDisplay:10.37,2013-08-29 04:05:00,
2013-08-29 00:07:00,70.2,43.4,26.69,SW,224,0.0,0.0,38,0.00,CLR,,0.00,WeatherDisplay:10.37,2013-08-29 04:07:00,
2013-08-29 00:09:00,70.0,43.2,26.69,SW,224,0.0,0.0,38,0.00,CLR,,0.00,WeatherDisplay:10.37,2013-08-29 04:09:00,
2013-08-29 00:11:00,70.0,43.2,26.69,SW,224,0.0,0.0,38,0.00,CLR,,0.00,WeatherDisplay:10.37,2013-08-29 04:11:00,
2013-08-29 00:13:00,70.0,43.2,26.69,SW,224,0.0,0.0,38,0.00,CLR,,0.00,WeatherDisplay:10.37,2013-08-29 04:13:00,
2013-08-29 00:14:00,70.0,43.2,26.69,SW,224,0.0,0.0,38,0.00,CLR,,0.00,WeatherDisplay:10.37,2013-08-29 04:14:00,
2013-08-29 00:15:00,70.0,43.2,26.69,SW,224,0.0,0.0,38,0.00,CLR,,0.00,WeatherDisplay:10.37,2013-08-29 04:15:00,
2013-08-29 00:16:00,70.0,43.2,26.69,SW,224,0.0,0.0,38,0.00,CLR,,0.00,WeatherDisplay:10.37,2013-08-29 04:16:00,
2013-08-29 00:18:00,69.8,43.0,26.69,SW,224,0.0,0.0,38,0.00,CLR,,0.00,WeatherDisplay:10.37,2013-08-29 04:18:00,
2013-08-29 00:19:00,69.8,43.0,26.69,SW,224,0.0,0.0,38,0.00,CLR,,0.00,WeatherDisplay:10.37,2013-08-29 04:19:00,
2013-08-29 00:21:00,69.8,43.0,26.69,SW,224,0.0,0.0,38,0.00,CLR,,0.00,WeatherDisplay:10.37,2013-08-29 04:21:00,
2013-08-29 00:23:00,70.0,43.9,26.69,SW,224,0.0,0.0,39,0.00,CLR,,0.00,WeatherDisplay:10.37,2013-08-29 04:23:00,
2013-08-29 00:24:00,70.0,43.9,26.69,SW,224,0.0,0.0,39,0.00,CLR,,0.00,WeatherDisplay:10.37,2013-08-29 04:24:00,
2013-08-29 00:26:00,69.8,43.0,26.69,SW,224,0.0,0.0,38,0.00,CLR,,0.00,WeatherDisplay:10.37,2013-08-29 04:26:00,
2013-08-29 00:27:00,69.8,43.0,26.69,SW,224,0.0,0.0,38,0.00,CLR,,0.00,WeatherDisplay:10.37,2013-08-29 04:27:00,
2013-08-29 00:28:00,69.8,43.0,26.69,SW,224,0.0,0.0,38,0.00,CLR,,0.00,WeatherDisplay:10.37,2013-08-29 04:28:00,
2013-08-29 00:29:00,69.8,43.0,26.69,SW,224,0.0,0.0,38,0.00,CLR,,0.00,WeatherDisplay:10.37,2013-08-29 04:29:00,
2013-08-29 00:32:00,69.6,43.6,26.69,SW,224,0.0,0.0,39,0.00,CLR,,0.00,WeatherDisplay:10.37,2013-08-29 04:32:00,
2013-08-29 00:33:00,69.6,43.6,26.69,SW,224,0.0,0.0,39,0.00,CLR,,0.00,WeatherDisplay:10.37,2013-08-29 04:33:00,
2013-08-29 00:34:00,69.6,43.6,26.69,SW,224,0.0,0.0,39,0.00,CLR,,0.00,WeatherDisplay:10.37,2013-08-29 04:34:00,
2013-08-29 00:35:00,69.6,43.6,0.00,SW,224,0.0,0.0,39,0.00,CLR,,0.00,WeatherDisplay:10.37,2013-08-29 04:35:00,
2013-08-29 00:38:00,69.6,43.6,26.69,SW,224,0.0,0.0,39,0.00,CLR,,0.00,WeatherDisplay:10.37,2013-08-29 04:38:00,
2013-08-29 00:40:00,69.6,43.6,26.69,SW,224,0.0,0.0,39,0.00,CLR,,0.00,WeatherDisplay:10.37,2013-08-29 04:40:00,
2013-08-29 00:42:00,69.4,43.4,26.69,SW,224,0.0,0.0,39,0.00,CLR,,0.00,WeatherDisplay:10.37,2013-08-29 04:42:00,
2013-08-29 00:45:00,69.4,43.4,0.00,SW,224,0.0,0.0,39,0.00,CLR,,0.00,WeatherDisplay:10.37,2013-08-29 04:45:00,
2013-08-29 00:46:00,69.4,43.4,26.69,SW,224,0.0,0.0,39,0.00,CLR,,0.00,WeatherDisplay:10.37,2013-08-29 04:46:00,
2013-08-29 00:47:00,69.4,43.4,26.69,SW,224,0.0,0.0,39,0.00,CLR,,0.00,WeatherDisplay:10.37,2013-08-29 04:47:00,
2013-08-29 00:51:00,69.4,43.4,26.69,SW,224,0.0,0.0,39,0.00,CLR,,0.00,WeatherDisplay:10.37,2013-08-29 04:51:00,
2013-08-29 00:52:00,69.3,43.2,26.69,SW,224,0.0,0.0,39,0.00,CLR,,0.00,WeatherDisplay:10.37,2013-08-29 04:52:00,
2013-08-29 00:53:00,69.3,43.2,26.69,SW,224,0.0,0.0,39,0.00,CLR,,0.00,WeatherDisplay:10.37,2013-08-29 04:53:00,
2013-08-29 00:54:00,69.3,43.2,26.69,SW,224,0.0,0.0,39,0.00,CLR,,0.00,WeatherDisplay:10.37,2013-08-29 04:54:00,
2013-08-29 00:56:00,69.3,43.2,26.69,SW,224,0.0,0.0,39,0.00,CLR,,0.00,WeatherDisplay:10.37,2013-08-29 04:56:00,
2013-08-29 00:59:00,69.3,43.2,26.69,SW,224,0.0,0.0,39,0.00,CLR,,0.00,WeatherDisplay:10.37,2013-08-29 04:59:00,
2013-08-29 01:00:00,69.3,43.2,26.69,SW,224,0.0,0.0,39,0.00,CLR,,0.00,WeatherDisplay:10.37,2013-08-29 05:00:00,
2013-08-29 01:01:00,69.3,43.2,26.69,SW,224,0.0,0.0,39,0.00,CLR,,0.00,WeatherDisplay:10.37,2013-08-29 05:01:00,
2013-08-29 01:05:00,69.1,43.1,26.69,SW,224,0.0,0.0,39,0.00,CLR,,0.00,WeatherDisplay:10.37,2013-08-29 05:05:00,
2013-08-29 01:06:00,69.1,43.1,26.69,SW,224,0.0,0.0,39,0.00,CLR,,0.00,WeatherDisplay:10.37,2013-08-29 05:06:00,
2013-08-29 01:07:00,69.1,43.1,26.69,SW,224,0.0,0.0,39,0.00,CLR,,0.00,WeatherDisplay:10.37,2013-08-29 05:07:00,
2013-08-29 01:09:00,69.1,43.1,26.69,SW,224,0.0,0.0,39,0.00,CLR,,0.00,WeatherDisplay:10.37,2013-08-29 05:09:00,
2013-08-29 01:10:00,69.1,43.1,26.69,SW,224,0.0,0.0,39,0.00,CLR,,0.00,WeatherDisplay:10.37,2013-08-29 05:10:00,
2013-08-29 01:11:00,69.1,43.1,26.69,SW,224,0.0,0.0,39,0.00,CLR,,0.00,WeatherDisplay:10.37,2013-08-29 05:11:00,
2013-08-29 01:12:00,69.1,43.7,26.69,SW,224,0.0,0.0,40,0.00,CLR,,0.00,WeatherDisplay:10.37,2013-08-29 05:12:00,
2013-08-29 01:13:00,69.1,43.7,26.69,SW,224,0.0,0.0,40,0.00,CLR,,0.00,WeatherDisplay:10.37,2013-08-29 05:13:00,
2013-08-29 01:15:00,69.1,43.7,26.69,SW,224,0.0,0.0,40,0.00,CLR,,0.00,WeatherDisplay:10.37,2013-08-29 05:15:00,
2013-08-29 01:16:00,69.1,43.7,26.69,SW,224,0.0,0.0,40,0.00,CLR,,0.00,WeatherDisplay:10.37,2013-08-29 05:16:00,
2013-08-29 01:17:00,69.1,43.7,26.69,SW,224,0.0,0.0,40,0.00,CLR,,0.00,WeatherDisplay:10.37,2013-08-29 05:17:00,
2013-08-29 01:19:00,68.9,43.6,26.69,SW,224,0.0,0.0,40,0.00,CLR,,0.00,WeatherDisplay:10.37,2013-08-29 05:19:00,
2013-08-29 01:21:00,68.9,43.6,26.69,SW,224,0.0,0.0,40,0.00,CLR,,0.00,WeatherDisplay:10.37,2013-08-29 05:21:00,
2013-08-29 01:23:00,68.9,43.6,26.69,SW,224,0.0,0.0,40,0.00,CLR,,0.00,WeatherDisplay:10.37,2013-08-29 05:23:00,
2013-08-29 01:24:00,68.9,43.6,26.69,SW,224,0.0,0.0,40,0.00,CLR,,0.00,WeatherDisplay:10.37,2013-08-29 05:24:00,
2013-08-29 01:25:00,68.9,43.6,0.00,SW,224,0.0,0.0,40,0.00,CLR,,0.00,WeatherDisplay:10.37,2013-08-29 05:25:00,
2013-08-29 01:27:00,68.9,43.6,26.69,SW,224,0.0,0.0,40,0.00,CLR,,0.00,WeatherDisplay:10.37,2013-08-29 05:27:00,
2013-08-29 01:28:00,68.9,43.6,26.69,SW,224,0.0,0.0,40,0.00,CLR,,0.00,WeatherDisplay:10.37,2013-08-29 05:28:00,
2013-08-29 01:30:00,68.9,43.6,0.00,SW,224,0.0,0.0,40,0.00,CLR,,0.00,WeatherDisplay:10.37,2013-08-29 05:30:00,
2013-08-29 01:31:00,68.9,43.6,26.69,SW,224,0.0,0.0,40,0.00,CLR,,0.00,WeatherDisplay:10.37,2013-08-29 05:31:00,
2013-08-29 01:35:00,68.7,43.4,26.69,SW,224,0.0,0.0,40,0.00,CLR,,0.00,WeatherDisplay:10.37,2013-08-29 05:35:00,
2013-08-29 01:36:00,68.7,43.4,26.69,SW,224,0.0,0.0,40,0.00,CLR,,0.00,WeatherDisplay:10.37,2013-08-29 05:36:00,
2013-08-29 01:37:00,68.7,43.4,26.69,SW,224,0.0,0.0,40,0.00,CLR,,0.00,WeatherDisplay:10.37,2013-08-29 05:37:00,
2013-08-29 01:38:00,68.7,43.4,26.69,SW,224,0.0,0.0,40,0.00,CLR,,0.00,WeatherDisplay:10.37,2013-08-29 05:38:00,
2013-08-29 01:40:00,68.7,43.4,0.00,SW,224,0.0,0.0,40,0.00,CLR,,0.00,WeatherDisplay:10.37,2013-08-29 05:40:00,
2013-08-29 01:42:00,68.7,43.4,26.69,SW,224,0.0,0.0,40,0.00,CLR,,0.00,WeatherDisplay:10.37,2013-08-29 05:42:00,
2013-08-29 01:43:00,68.7,43.4,26.69,SW,224,0.0,0.0,40,0.00,CLR,,0.00,WeatherDisplay:10.37,2013-08-29 05:43:00,
2013-08-29 01:44:00,68.7,43.4,26.69,SW,224,0.0,0.0,40,0.00,CLR,,0.00,WeatherDisplay:10.37,2013-08-29 05:44:00,
2013-08-29 01:46:00,68.7,43.4,26.69,SW,224,0.0,0.0,40,0.00,CLR,,0.00,WeatherDisplay:10.37,2013-08-29 05:46:00,
2013-08-29 01:47:00,68.7,43.4,26.69,SW,224,0.0,0.0,40,0.00,CLR,,0.00,WeatherDisplay:10.37,2013-08-29 05:47:00,
2013-08-29 01:49:00,68.7,43.4,26.69,SW,224,0.0,0.0,40,0.00,CLR,,0.00,WeatherDisplay:10.37,2013-08-29 05:49:00,
2013-08-29 01:50:00,68.7,43.4,0.00,SW,224,0.0,0.0,40,0.00,CLR,,0.00,WeatherDisplay:10.37,2013-08-29 05:50:00,
2013-08-29 01:51:00,68.7,43.4,26.69,SW,224,0.0,0.0,40,0.00,CLR,,0.00,WeatherDisplay:10.37,2013-08-29 05:51:00,
2013-08-29 01:53:00,68.7,43.4,26.69,SW,224,0.0,0.0,40,0.00,CLR,,0.00,WeatherDisplay:10.37,2013-08-29 05:53:00,
2013-08-29 01:54:00,68.5,43.2,26.69,SW,224,0.0,0.0,40,0.00,CLR,,0.00,WeatherDisplay:10.37,2013-08-29 05:54:00,
2013-08-29 01:55:00,68.5,43.2,26.69,SW,224,0.0,0.0,40,0.00,CLR,,0.00,WeatherDisplay:10.37,2013-08-29 05:55:00,
2013-08-29 01:59:00,68.5,43.2,26.69,SW,224,0.0,0.0,40,0.00,CLR,,0.00,WeatherDisplay:10.37,2013-08-29 05:59:00,
2013-08-29 02:00:00,68.5,43.2,0.00,SW,224,0.0,0.0,40,0.00,CLR,,0.00,WeatherDisplay:10.37,2013-08-29 06:00:00,
2013-08-29 02:02:00,68.5,43.2,26.69,SW,224,0.0,0.0,40,0.00,CLR,,0.00,WeatherDisplay:10.37,2013-08-29 06:02:00,
2013-08-29 02:05:00,68.5,43.2,26.69,SW,224,0.0,0.0,40,0.00,CLR,,0.00,WeatherDisplay:10.37,2013-08-29 06:05:00,
2013-08-29 02:07:00,68.5,43.2,26.69,SW,224,0.0,0.0,40,0.00,CLR,,0.00,WeatherDisplay:10.37,2013-08-29 06:07:00,
2013-08-29 02:09:00,68.4,43.1,26.69,SW,224,0.0,0.0,40,0.00,CLR,,0.00,WeatherDisplay:10.37,2013-08-29 06:09:00,
2013-08-29 02:10:00,68.4,43.1,26.69,SW,224,0.0,0.0,40,0.00,CLR,,0.00,WeatherDisplay:10.37,2013-08-29 06:10:00,
2013-08-29 02:13:00,68.4,43.1,26.69,SW,224,0.0,0.0,40,0.00,CLR,,0.00,WeatherDisplay:10.37,2013-08-29 06:13:00,
2013-08-29 02:16:00,68.4,43.1,26.69,SW,224,0.0,0.0,40,0.00,CLR,,0.00,WeatherDisplay:10.37,2013-08-29 06:16:00,
2013-08-29 02:18:00,68.2,42.9,26.69,SW,224,0.0,0.0,40,0.00,CLR,,0.00,WeatherDisplay:10.37,2013-08-29 06:18:00,
2013-08-29 02:20:00,68.2,42.9,0.00,SW,224,0.0,0.0,40,0.00,CLR,,0.00,WeatherDisplay:10.37,2013-08-29 06:20:00,
2013-08-29 02:21:00,68.2,43.6,26.69,SW,224,0.0,0.0,41,0.00,CLR,,0.00,WeatherDisplay:10.37,2013-08-29 06:21:00,
2013-08-29 02:22:00,68.2,43.6,26.69,SW,224,0.0,0.0,41,0.00,CLR,,0.00,WeatherDisplay:10.37,2013-08-29 06:22:00,
2013-08-29 02:25:00,68.0,43.4,26.69,SW,224,0.0,0.0,41,0.00,CLR,,0.00,WeatherDisplay:10.37,2013-08-29 06:25:00,
2013-08-29 02:26:00,68.0,43.4,26.69,SW,224,0.0,0.0,41,0.00,CLR,,0.00,WeatherDisplay:10.37,2013-08-29 06:26:00,
2013-08-29 02:27:00,68.0,43.4,26.69,SW,224,0.0,0.0,41,0.00,CLR,,0.00,WeatherDisplay:10.37,2013-08-29 06:27:00,
2013-08-29 02:28:00,68.0,43.4,26.69,SW,224,0.0,0.0,41,0.00,CLR,,0.00,WeatherDisplay:10.37,2013-08-29 06:28:00,
2013-08-29 02:31:00,68.0,43.4,26.69,SW,224,0.0,0.0,41,0.00,CLR,,0.00,WeatherDisplay:10.37,2013-08-29 06:31:00,
2013-08-29 02:32:00,68.0,43.4,26.69,SW,224,0.0,0.0,41,0.00,CLR,,0.00,WeatherDisplay:10.37,2013-08-29 06:32:00,
2013-08-29 02:33:00,68.0,43.4,26.69,SW,224,0.0,0.0,41,0.00,CLR,,0.00,WeatherDisplay:10.37,2013-08-29 06:33:00,
2013-08-29 02:35:00,67.8,43.2,26.69,SW,224,0.0,0.0,41,0.00,CLR,,0.00,WeatherDisplay:10.37,2013-08-29 06:35:00,
2013-08-29 02:36:00,67.8,43.2,26.69,SW,224,0.0,0.0,41,0.00,CLR,,0.00,WeatherDisplay:10.37,2013-08-29 06:36:00,
2013-08-29 02:37:00,67.8,43.2,26.69,SW,224,0.0,0.0,41,0.00,CLR,,0.00,WeatherDisplay:10.37,2013-08-29 06:37:00,
2013-08-29 02:39:00,67.8,43.2,26.69,SW,224,0.0,0.0,41,0.00,CLR,,0.00,WeatherDisplay:10.37,2013-08-29 06:39:00,
2013-08-29 02:41:00,67.8,43.9,26.69,SW,224,0.0,0.0,42,0.00,CLR,,0.00,WeatherDisplay:10.37,2013-08-29 06:41:00,
2013-08-29 02:42:00,67.8,43.9,26.69,SW,224,0.0,0.0,42,0.00,CLR,,0.00,WeatherDisplay:10.37,2013-08-29 06:42:00,
2013-08-29 02:44:00,67.8,43.9,26.69,SW,224,0.0,0.0,42,0.00,CLR,,0.00,WeatherDisplay:10.37,2013-08-29 06:44:00,
2013-08-29 02:45:00,67.8,43.9,26.69,SW,224,0.0,0.0,42,0.00,CLR,,0.00,WeatherDisplay:10.37,2013-08-29 06:45:00,
2013-08-29 02:46:00,67.8,43.9,26.69,SW,224,0.0,0.0,42,0.00,CLR,,0.00,WeatherDisplay:10.37,2013-08-29 06:46:00,
2013-08-29 02:48:00,67.8,43.9,26.69,SW,224,0.0,0.0,42,0.00,CLR,,0.00,WeatherDisplay:10.37,2013-08-29 06:48:00,
2013-08-29 02:50:00,67.6,43.7,0.00,SW,224,0.0,0.0,42,0.00,CLR,,0.00,WeatherDisplay:10.37,2013-08-29 06:50:00,
2013-08-29 02:52:00,67.8,43.9,26.69,SW,224,0.0,0.0,42,0.00,CLR,,0.00,WeatherDisplay:10.37,2013-08-29 06:52:00,
2013-08-29 02:53:00,67.8,43.9,26.69,SW,224,0.0,0.0,42,0.00,CLR,,0.00,WeatherDisplay:10.37,2013-08-29 06:53:00,
2013-08-29 02:54:00,67.8,43.9,26.69,SW,224,0.0,0.0,42,0.00,CLR,,0.00,WeatherDisplay:10.37,2013-08-29 06:54:00,
2013-08-29 02:55:00,67.8,43.9,26.69,SW,224,0.0,0.0,42,0.00,CLR,,0.00,WeatherDisplay:10.37,2013-08-29 06:55:00,
2013-08-29 02:57:00,67.8,43.9,26.69,SW,224,0.0,0.0,42,0.00,CLR,,0.00,WeatherDisplay:10.37,2013-08-29 06:57:00,
2013-08-29 02:58:00,67.8,43.9,26.69,SW,224,0.0,0.0,42,0.00,CLR,,0.00,WeatherDisplay:10.37,2013-08-29 06:58:00,
2013-08-29 02:59:00,67.8,43.9,26.69,SW,224,0.0,0.0,42,0.00,CLR,,0.00,WeatherDisplay:10.37,2013-08-29 06:59:00,
2013-08-29 03:00:00,67.8,43.9,26.69,SW,224,0.0,0.0,42,0.00,CLR,,0.00,WeatherDisplay:10.37,2013-08-29 07:00:00,
2013-08-29 03:02:00,67.8,43.9,26.69,SW,224,0.0,0.0,42,0.00,CLR,,0.00,WeatherDisplay:10.37,2013-08-29 07:02:00,
2013-08-29 03:04:00,67.6,43.7,26.69,SW,224,0.0,0.0,42,0.00,CLR,,0.00,WeatherDisplay:10.37,2013-08-29 07:04:00,
2013-08-29 03:05:00,67.6,43.7,26.69,SW,224,0.0,0.0,42,0.00,CLR,,0.00,WeatherDisplay:10.37,2013-08-29 07:05:00,
2013-08-29 03:07:00,67.6,43.7,26.69,SW,224,0.0,0.0,42,0.00,CLR,,0.00,WeatherDisplay:10.37,2013-08-29 07:07:00,
2013-08-29 03:08:00,67.6,43.7,26.69,SW,224,0.0,0.0,42,0.00,CLR,,0.00,WeatherDisplay:10.37,2013-08-29 07:08:00,
2013-08-29 03:10:00,67.6,43.7,26.69,SW,224,0.0,0.0,42,0.00,CLR,,0.00,WeatherDisplay:10.37,2013-08-29 07:10:00,
2013-08-29 03:11:00,67.6,43.7,26.69,SW,224,0.0,0.0,42,0.00,CLR,,0.00,WeatherDisplay:10.37,2013-08-29 07:11:00,
2013-08-29 03:12:00,67.6,43.7,26.69,SW,224,0.0,0.0,42,0.00,CLR,,0.00,WeatherDisplay:10.37,2013-08-29 07:12:00,
2013-08-29 03:16:00,67.6,43.7,26.69,SW,224,0.0,0.0,42,0.00,CLR,,0.00,WeatherDisplay:10.37,2013-08-29 07:16:00,
2013-08-29 03:17:00,67.6,43.7,26.69,SW,224,0.0,0.0,42,0.00,CLR,,0.00,WeatherDisplay:10.37,2013-08-29 07:17:00,
2013-08-29 03:18:00,67.5,43.6,26.69,SW,224,0.0,0.0,42,0.00,CLR,,0.00,WeatherDisplay:10.37,2013-08-29 07:18:00,
2013-08-29 03:19:00,67.5,43.6,26.69,SW,224,0.0,0.0,42,0.00,CLR,,0.00,WeatherDisplay:10.37,2013-08-29 07:19:00,
2013-08-29 03:20:00,67.5,43.6,0.00,SW,224,0.0,0.0,42,0.00,CLR,,0.00,WeatherDisplay:10.37,2013-08-29 07:20:00,
2013-08-29 03:22:00,67.5,43.6,26.69,SW,224,0.0,0.0,42,0.00,CLR,,0.00,WeatherDisplay:10.37,2013-08-29 07:22:00,
2013-08-29 03:23:00,67.5,43.6,26.69,SW,224,0.0,0.0,42,0.00,CLR,,0.00,WeatherDisplay:10.37,2013-08-29 07:23:00,
2013-08-29 03:25:00,67.5,43.6,0.00,SW,224,0.0,0.0,42,0.00,CLR,,0.00,WeatherDisplay:10.37,2013-08-29 07:25:00,
2013-08-29 03:27:00,67.5,43.6,26.69,SW,224,0.0,0.0,42,0.00,CLR,,0.00,WeatherDisplay:10.37,2013-08-29 07:27:00,
2013-08-29 03:29:00,67.5,43.6,26.69,SW,224,0.0,0.0,42,0.00,CLR,,0.00,WeatherDisplay:10.37,2013-08-29 07:29:00,
2013-08-29 03:32:00,67.3,43.4,26.69,SW,224,0.0,0.0,42,0.00,CLR,,0.00,WeatherDisplay:10.37,2013-08-29 07:32:00,
2013-08-29 03:33:00,67.3,43.4,26.69,SW,224,0.0,0.0,42,0.00,CLR,,0.00,WeatherDisplay:10.37,2013-08-29 07:33:00,
2013-08-29 03:35:00,67.3,43.4,0.00,SW,224,0.0,0.0,42,0.00,CLR,,0.00,WeatherDisplay:10.37,2013-08-29 07:35:00,
2013-08-29 03:36:00,67.3,43.4,26.69,SW,224,0.0,0.0,42,0.00,CLR,,0.00,WeatherDisplay:10.37,2013-08-29 07:36:00,
2013-08-29 03:37:00,67.3,43.4,26.69,SW,224,0.0,0.0,42,0.00,CLR,,0.00,WeatherDisplay:10.37,2013-08-29 07:37:00,
2013-08-29 03:40:00,67.3,43.4,0.00,SW,224,0.0,0.0,42,0.00,CLR,,0.00,WeatherDisplay:10.37,2013-08-29 07:40:00,
2013-08-29 03:42:00,67.3,43.4,26.69,SW,224,0.0,0.0,42,0.00,CLR,,0.00,WeatherDisplay:10.37,2013-08-29 07:42:00,
2013-08-29 03:43:00,67.3,43.4,26.69,SW,224,0.0,0.0,42,0.00,CLR,,0.00,WeatherDisplay:10.37,2013-08-29 07:43:00,
2013-08-29 03:47:00,67.3,43.4,26.69,SW,224,0.0,0.0,42,0.00,CLR,,0.00,WeatherDisplay:10.37,2013-08-29 07:47:00,
2013-08-29 03:49:00,67.3,43.4,26.69,SW,224,0.0,0.0,42,0.00,CLR,,0.00,WeatherDisplay:10.37,2013-08-29 07:49:00,
2013-08-29 03:50:00,67.3,43.4,26.69,SW,224,0.0,0.0,42,0.00,CLR,,0.00,WeatherDisplay:10.37,2013-08-29 07:50:00,
2013-08-29 03:53:00,67.1,43.2,26.69,SW,224,0.0,0.0,42,0.00,CLR,,0.00,WeatherDisplay:10.37,2013-08-29 07:53:00,
2013-08-29 03:54:00,67.1,43.2,26.69,SW,224,0.0,0.0,42,0.00,CLR,,0.00,WeatherDisplay:10.37,2013-08-29 07:54:00,
2013-08-29 03:55:00,67.1,43.2,0.00,SW,224,0.0,0.0,42,0.00,CLR,,0.00,WeatherDisplay:10.37,2013-08-29 07:55:00,
2013-08-29 03:56:00,67.1,43.2,26.69,SW,224,0.0,0.0,42,0.00,CLR,,0.00,WeatherDisplay:10.37,2013-08-29 07:56:00,
2013-08-29 03:58:00,67.1,43.2,26.69,SW,224,0.0,0.0,42,0.00,CLR,,0.00,WeatherDisplay:10.37,2013-08-29 07:58:00,
2013-08-29 03:59:00,67.1,43.2,26.69,SW,224,0.0,0.0,42,0.00,CLR,,0.00,WeatherDisplay:10.37,2013-08-29 07:59:00,
2013-08-29 04:02:00,67.1,43.2,26.69,SW,224,0.0,0.0,42,0.00,CLR,,0.00,WeatherDisplay:10.37,2013-08-29 08:02:00,
2013-08-29 04:05:00,67.1,43.2,0.00,SW,224,0.0,0.0,42,0.00,CLR,,0.00,WeatherDisplay:10.37,2013-08-29 08:05:00,
2013-08-29 04:06:00,67.1,43.2,26.69,SW,224,0.0,0.0,42,0.00,CLR,,0.00,WeatherDisplay:10.37,2013-08-29 08:06:00,
2013-08-29 04:07:00,66.9,43.1,26.69,SW,224,0.0,0.0,42,0.00,CLR,,0.00,WeatherDisplay:10.37,2013-08-29 08:07:00,
2013-08-29 04:10:00,67.0,43.1,0.00,SW,224,0.0,0.0,42,0.00,CLR,,0.00,WeatherDisplay:10.37,2013-08-29 08:10:00,
2013-08-29 04:11:00,66.9,43.7,26.69,SW,224,0.0,0.0,43,0.00,CLR,,0.00,WeatherDisplay:10.37,2013-08-29 08:11:00,
2013-08-29 04:13:00,66.9,43.7,26.69,SW,224,0.0,0.0,43,0.00,CLR,,0.00,WeatherDisplay:10.37,2013-08-29 08:13:00,
2013-08-29 04:15:00,66.9,43.7,26.69,SW,224,0.0,0.0,43,0.00,CLR,,0.00,WeatherDisplay:10.37,2013-08-29 08:15:00,
2013-08-29 04:16:00,66.9,43.7,26.69,SW,224,0.0,0.0,43,0.00,CLR,,0.00,WeatherDisplay:10.37,2013-08-29 08:16:00,
2013-08-29 04:17:00,66.7,43.5,26.69,SW,224,0.0,0.0,43,0.00,CLR,,0.00,WeatherDisplay:10.37,2013-08-29 08:17:00,
2013-08-29 04:18:00,66.7,43.5,26.69,SW,224,0.0,0.0,43,0.00,CLR,,0.00,WeatherDisplay:10.37,2013-08-29 08:18:00,
2013-08-29 04:20:00,66.7,43.5,26.69,SW,224,0.0,0.0,43,0.00,CLR,,0.00,WeatherDisplay:10.37,2013-08-29 08:20:00,
2013-08-29 04:22:00,66.7,43.5,26.69,SW,224,0.0,0.0,43,0.00,CLR,,0.00,WeatherDisplay:10.37,2013-08-29 08:22:00,
2013-08-29 04:23:00,66.7,43.5,26.69,SW,224,0.0,0.0,43,0.00,CLR,,0.00,WeatherDisplay:10.37,2013-08-29 08:23:00,
2013-08-29 04:24:00,66.7,43.5,26.69,SW,224,0.0,0.0,43,0.00,CLR,,0.00,WeatherDisplay:10.37,2013-08-29 08:24:00,
2013-08-29 04:25:00,66.7,43.5,26.69,SW,224,0.0,0.0,43,0.00,CLR,,0.00,WeatherDisplay:10.37,2013-08-29 08:25:00,
2013-08-29 04:26:00,66.7,43.5,26.69,SW,224,0.0,0.0,43,0.00,CLR,,0.00,WeatherDisplay:10.37,2013-08-29 08:26:00,
2013-08-29 04:29:00,66.6,43.4,26.69,SW,224,0.0,0.0,43,0.00,CLR,,0.00,WeatherDisplay:10.37,2013-08-29 08:29:00,
2013-08-29 04:30:00,66.6,43.4,0.00,SW,224,0.0,0.0,43,0.00,CLR,,0.00,WeatherDisplay:10.37,2013-08-29 08:30:00,
2013-08-29 04:31:00,66.6,43.4,26.69,SW,224,0.0,0.0,43,0.00,CLR,,0.00,WeatherDisplay:10.37,2013-08-29 08:31:00,
2013-08-29 04:34:00,66.6,43.4,26.69,SW,224,0.0,0.0,43,0.00,CLR,,0.00,WeatherDisplay:10.37,2013-08-29 08:34:00,
2013-08-29 04:36:00,66.6,43.4,26.69,SW,224,0.0,0.0,43,0.00,CLR,,0.00,WeatherDisplay:10.37,2013-08-29 08:36:00,
2013-08-29 04:37:00,66.4,43.2,26.69,SW,224,0.0,0.0,43,0.00,CLR,,0.00,WeatherDisplay:10.37,2013-08-29 08:37:00,
2013-08-29 04:39:00,66.4,43.2,26.69,SW,224,0.0,0.0,43,0.00,CLR,,0.00,WeatherDisplay:10.37,2013-08-29 08:39:00,
2013-08-29 04:40:00,66.4,43.2,26.69,SW,224,0.0,0.0,43,0.00,CLR,,0.00,WeatherDisplay:10.37,2013-08-29 08:40:00,
2013-08-29 04:41:00,66.4,43.2,26.69,SW,224,0.0,0.0,43,0.00,CLR,,0.00,WeatherDisplay:10.37,2013-08-29 08:41:00,
2013-08-29 04:43:00,66.4,43.2,26.69,SW,224,0.0,0.0,43,0.00,CLR,,0.00,WeatherDisplay:10.37,2013-08-29 08:43:00,
2013-08-29 04:44:00,66.4,43.2,26.69,SW,224,0.0,0.0,43,0.00,CLR,,0.00,WeatherDisplay:10.37,2013-08-29 08:44:00,
2013-08-29 04:46:00,66.4,43.2,26.69,SW,224,0.0,0.0,43,0.00,CLR,,0.00,WeatherDisplay:10.37,2013-08-29 08:46:00,
2013-08-29 04:48:00,66.4,43.2,26.69,SW,224,0.0,0.0,43,0.00,CLR,,0.00,WeatherDisplay:10.37,2013-08-29 08:48:00,
2013-08-29 04:49:00,66.4,43.2,26.69,SW,224,0.0,0.0,43,0.00,CLR,,0.00,WeatherDisplay:10.37,2013-08-29 08:49:00,
2013-08-29 04:50:00,66.4,43.2,26.69,SW,224,0.0,0.0,43,0.00,CLR,,0.00,WeatherDisplay:10.37,2013-08-29 08:50:00,
2013-08-29 04:51:00,66.4,43.2,26.69,SW,224,0.0,0.0,43,0.00,CLR,,0.00,WeatherDisplay:10.37,2013-08-29 08:51:00,
2013-08-29 04:54:00,66.4,43.2,26.69,SW,224,0.0,0.0,43,0.00,CLR,,0.00,WeatherDisplay:10.37,2013-08-29 08:54:00,
2013-08-29 04:55:00,66.4,43.2,26.69,SW,224,0.0,0.0,43,0.00,CLR,,0.00,WeatherDisplay:10.37,2013-08-29 08:55:00,
2013-08-29 04:56:00,66.4,43.2,26.69,SW,224,0.0,0.0,43,0.00,CLR,,0.00,WeatherDisplay:10.37,2013-08-29 08:56:00,
2013-08-29 04:58:00,66.4,43.2,26.69,SW,224,0.0,0.0,43,0.00,CLR,,0.00,WeatherDisplay:10.37,2013-08-29 08:58:00,
2013-08-29 05:00:00,66.4,43.2,26.69,SW,224,0.0,0.0,43,0.00,CLR,,0.00,WeatherDisplay:10.37,2013-08-29 09:00:00,
2013-08-29 05:01:00,66.6,43.4,26.69,SW,224,0.0,0.0,43,0.00,CLR,,0.00,WeatherDisplay:10.37,2013-08-29 09:01:00,
2013-08-29 05:05:00,66.6,43.4,0.00,SW,224,0.0,0.0,43,0.00,CLR,,0.00,WeatherDisplay:10.37,2013-08-29 09:05:00,
2013-08-29 05:06:00,66.6,43.4,26.69,SW,224,0.0,0.0,43,0.00,CLR,,0.00,WeatherDisplay:10.37,2013-08-29 09:06:00,
2013-08-29 05:11:00,66.4,43.2,26.69,SW,224,0.0,0.0,43,0.00,CLR,,0.00,WeatherDisplay:10.37,2013-08-29 09:11:00,
2013-08-29 05:12:00,66.4,43.2,26.69,SW,224,0.0,0.0,43,0.00,CLR,,0.00,WeatherDisplay:10.37,2013-08-29 09:12:00,
2013-08-29 05:13:00,66.4,43.2,26.69,SW,224,0.0,0.0,43,0.00,CLR,,0.00,WeatherDisplay:10.37,2013-08-29 09:13:00,
2013-08-29 05:15:00,66.2,43.0,26.69,SW,224,0.0,0.0,43,0.00,CLR,,0.00,WeatherDisplay:10.37,2013-08-29 09:15:00,
2013-08-29 05:16:00,66.2,43.0,26.69,SW,224,0.0,0.0,43,0.00,CLR,,0.00,WeatherDisplay:10.37,2013-08-29 09:16:00,
2013-08-29 05:17:00,66.2,43.0,26.69,SW,224,0.0,0.0,43,0.00,CLR,,0.00,WeatherDisplay:10.37,2013-08-29 09:17:00,
2013-08-29 05:19:00,66.2,43.0,26.69,SW,224,0.0,0.0,43,0.00,CLR,,0.00,WeatherDisplay:10.37,2013-08-29 09:19:00,
2013-08-29 05:21:00,66.2,43.0,26.69,SW,224,0.0,0.0,43,0.00,CLR,,0.00,WeatherDisplay:10.37,2013-08-29 09:21:00,
2013-08-29 05:24:00,66.0,42.9,26.69,SW,224,0.0,0.0,43,0.00,CLR,,0.00,WeatherDisplay:10.37,2013-08-29 09:24:00,
2013-08-29 05:25:00,66.0,42.9,26.69,SW,224,0.0,0.0,43,0.00,CLR,,0.00,WeatherDisplay:10.37,2013-08-29 09:25:00,
2013-08-29 05:26:00,66.0,42.9,26.69,SW,224,0.0,0.0,43,0.00,CLR,,0.00,WeatherDisplay:10.37,2013-08-29 09:26:00,
2013-08-29 05:27:00,66.0,42.9,26.69,SW,224,0.0,0.0,43,0.00,CLR,,0.00,WeatherDisplay:10.37,2013-08-29 09:27:00,
2013-08-29 05:29:00,66.0,42.9,26.69,SW,224,0.0,0.0,43,0.00,CLR,,0.00,WeatherDisplay:10.37,2013-08-29 09:29:00,
2013-08-29 05:31:00,66.0,42.9,26.69,SW,224,0.0,0.0,43,0.00,CLR,,0.00,WeatherDisplay:10.37,2013-08-29 09:31:00,
2013-08-29 05:32:00,66.0,42.9,26.69,SW,224,0.0,0.0,43,0.00,CLR,,0.00,WeatherDisplay:10.37,2013-08-29 09:32:00,
2013-08-29 05:33:00,66.0,42.9,26.69,SW,224,0.0,0.0,43,0.00,CLR,,0.00,WeatherDisplay:10.37,2013-08-29 09:33:00,
2013-08-29 05:34:00,66.0,42.9,26.69,SW,224,0.0,0.0,43,0.00,CLR,,0.00,WeatherDisplay:10.37,2013-08-29 09:34:00,
2013-08-29 05:37:00,66.0,42.9,26.69,SW,224,0.0,0.0,43,0.00,CLR,,0.00,WeatherDisplay:10.37,2013-08-29 09:37:00,
2013-08-29 05:39:00,66.0,42.9,26.69,SW,224,0.0,0.0,43,0.00,CLR,,0.00,WeatherDisplay:10.37,2013-08-29 09:39:00,
2013-08-29 05:44:00,66.0,42.9,26.69,SW,224,0.0,0.0,43,0.00,CLR,,0.00,WeatherDisplay:10.37,2013-08-29 09:44:00,
2013-08-29 05:46:00,66.0,42.9,26.69,SW,224,0.0,0.0,43,0.00,CLR,,0.00,WeatherDisplay:10.37,2013-08-29 09:46:00,
2013-08-29 05:47:00,66.0,43.5,26.69,SW,224,0.0,0.0,44,0.00,CLR,,0.00,WeatherDisplay:10.37,2013-08-29 09:47:00,
2013-08-29 05:49:00,65.8,43.3,26.69,SW,224,0.0,0.0,44,0.00,CLR,,0.00,WeatherDisplay:10.37,2013-08-29 09:49:00,
2013-08-29 05:51:00,65.8,42.7,26.69,SW,224,0.0,0.0,43,0.00,CLR,,0.00,WeatherDisplay:10.37,2013-08-29 09:51:00,
2013-08-29 05:54:00,65.7,42.5,26.69,SW,224,0.0,0.0,43,0.00,CLR,,0.00,WeatherDisplay:10.37,2013-08-29 09:54:00,
2013-08-29 05:55:00,65.7,42.5,26.69,SW,224,0.0,0.0,43,0.00,CLR,,0.00,WeatherDisplay:10.37,2013-08-29 09:55:00,
2013-08-29 05:56:00,65.7,42.5,26.69,SW,224,0.0,0.0,43,0.00,CLR,,0.00,WeatherDisplay:10.37,2013-08-29 09:56:00,
2013-08-29 05:57:00,65.7,42.5,26.69,SW,224,0.0,0.0,43,0.00,CLR,,0.00,WeatherDisplay:10.37,2013-08-29 09:57:00,
2013-08-29 05:59:00,65.7,42.5,26.69,SW,224,0.0,0.0,43,0.00,CLR,,0.00,WeatherDisplay:10.37,2013-08-29 09:59:00,
2013-08-29 06:01:00,65.7,42.5,26.69,SW,224,0.0,0.0,43,0.00,CLR,,0.00,WeatherDisplay:10.37,2013-08-29 10:01:00,
2013-08-29 06:02:00,65.7,42.5,26.69,SW,224,0.0,0.0,43,0.00,CLR,,0.00,WeatherDisplay:10.37,2013-08-29 10:02:00,
2013-08-29 06:04:00,65.7,43.1,26.69,SW,224,0.0,0.0,44,0.00,CLR,,0.00,WeatherDisplay:10.37,2013-08-29 10:04:00,
2013-08-29 06:06:00,65.7,43.1,26.69,SW,224,0.0,0.0,44,0.00,CLR,,0.00,WeatherDisplay:10.37,2013-08-29 10:06:00,
2013-08-29 06:07:00,65.5,43.0,26.69,SW,224,0.0,0.0,44,0.00,CLR,,0.00,WeatherDisplay:10.37,2013-08-29 10:07:00,
2013-08-29 06:09:00,65.5,43.0,26.69,SW,224,0.0,0.0,44,0.00,CLR,,0.00,WeatherDisplay:10.37,2013-08-29 10:09:00,
2013-08-29 06:11:00,65.5,43.0,26.69,SW,224,0.0,0.0,44,0.00,CLR,,0.00,WeatherDisplay:10.37,2013-08-29 10:11:00,
2013-08-29 06:12:00,65.5,42.4,26.69,SW,224,0.0,0.0,43,0.00,CLR,,0.00,WeatherDisplay:10.37,2013-08-29 10:12:00,
2013-08-29 06:13:00,65.5,42.4,26.69,SW,224,0.0,0.0,43,0.00,CLR,,0.00,WeatherDisplay:10.37,2013-08-29 10:13:00,
2013-08-29 06:14:00,65.5,43.0,26.69,SW,224,0.0,0.0,44,0.00,CLR,,0.00,WeatherDisplay:10.37,2013-08-29 10:14:00,
2013-08-29 06:16:00,65.3,42.8,26.69,SW,224,0.0,0.0,44,0.00,CLR,,0.00,WeatherDisplay:10.37,2013-08-29 10:16:00,
2013-08-29 06:18:00,65.3,42.8,26.69,SW,224,0.0,0.0,44,0.00,CLR,,0.00,WeatherDisplay:10.37,2013-08-29 10:18:00,
2013-08-29 06:19:00,65.3,42.8,26.69,SW,224,0.0,0.0,44,0.00,CLR,,0.00,WeatherDisplay:10.37,2013-08-29 10:19:00,
2013-08-29 06:20:00,65.3,42.8,26.69,SW,224,0.0,0.0,44,0.00,CLR,,0.00,WeatherDisplay:10.37,2013-08-29 10:20:00,
2013-08-29 06:23:00,65.1,42.1,26.69,SW,224,0.0,0.0,43,0.00,CLR,,0.00,WeatherDisplay:10.37,2013-08-29 10:23:00,
2013-08-29 06:24:00,65.1,42.1,26.69,SW,224,0.0,0.0,43,0.00,CLR,,0.00,WeatherDisplay:10.37,2013-08-29 10:24:00,
2013-08-29 06:25:00,65.1,42.1,0.00,SW,224,0.0,0.0,43,0.00,CLR,,0.00,WeatherDisplay:10.37,2013-08-29 10:25:00,
2013-08-29 06:28:00,65.1,42.1,26.69,SW,224,0.0,0.0,43,0.00,CLR,,0.00,WeatherDisplay:10.37,2013-08-29 10:28:00,
2013-08-29 06:29:00,65.1,42.1,26.69,SW,224,0.0,0.0,43,0.00,CLR,,0.00,WeatherDisplay:10.37,2013-08-29 10:29:00,
2013-08-29 06:30:00,65.1,42.1,0.00,SW,224,0.0,0.0,43,0.00,CLR,,0.00,WeatherDisplay:10.37,2013-08-29 10:30:00,
2013-08-29 06:34:00,65.1,42.7,26.69,SW,224,0.0,0.0,44,0.00,CLR,,0.00,WeatherDisplay:10.37,2013-08-29 10:34:00,
2013-08-29 06:35:00,65.1,42.7,26.69,SW,224,0.0,0.0,44,0.00,CLR,,0.00,WeatherDisplay:10.37,2013-08-29 10:35:00,
2013-08-29 06:36:00,65.1,42.7,26.69,SW,224,0.0,0.0,44,0.00,CLR,,0.00,WeatherDisplay:10.37,2013-08-29 10:36:00,
2013-08-29 06:37:00,65.1,42.7,26.69,SW,224,0.0,0.0,44,0.00,CLR,,0.00,WeatherDisplay:10.37,2013-08-29 10:37:00,
2013-08-29 06:40:00,64.9,42.5,0.00,SW,224,0.0,0.0,44,0.00,CLR,,0.00,WeatherDisplay:10.37,2013-08-29 10:40:00,
2013-08-29 06:43:00,64.9,42.5,26.69,SW,224,0.0,0.0,44,0.00,CLR,,0.00,WeatherDisplay:10.37,2013-08-29 10:43:00,
2013-08-29 06:44:00,64.9,42.5,26.69,SW,224,0.0,0.0,44,0.00,CLR,,0.00,WeatherDisplay:10.37,2013-08-29 10:44:00,
2013-08-29 06:45:00,64.8,42.4,0.00,SW,224,0.0,0.0,44,0.00,CLR,,0.00,WeatherDisplay:10.37,2013-08-29 10:45:00,
2013-08-29 06:48:00,64.8,42.3,26.69,SW,224,0.0,0.0,44,0.00,CLR,,0.00,WeatherDisplay:10.37,2013-08-29 10:48:00,
2013-08-29 06:49:00,64.8,42.3,26.69,SW,224,0.0,0.0,44,0.00,CLR,,0.00,WeatherDisplay:10.37,2013-08-29 10:49:00,
2013-08-29 06:50:00,64.8,42.3,0.00,SW,224,0.0,0.0,44,0.00,CLR,,0.00,WeatherDisplay:10.37,2013-08-29 10:50:00,
2013-08-29 06:52:00,64.8,42.3,26.69,SW,224,0.0,0.0,44,0.00,CLR,,0.00,WeatherDisplay:10.37,2013-08-29 10:52:00,
2013-08-29 06:55:00,64.6,42.2,0.00,SW,224,0.0,0.0,44,0.00,CLR,,0.00,WeatherDisplay:10.37,2013-08-29 10:55:00,
2013-08-29 06:57:00,64.6,42.2,26.69,SW,224,0.0,0.0,44,0.00,CLR,,0.00,WeatherDisplay:10.37,2013-08-29 10:57:00,
2013-08-29 06:58:00,64.6,42.2,26.69,SW,224,0.0,0.0,44,0.00,CLR,,0.00,WeatherDisplay:10.37,2013-08-29 10:58:00,
2013-08-29 06:59:00,64.8,42.3,26.69,SW,224,0.0,0.0,44,0.00,CLR,,0.00,WeatherDisplay:10.37,2013-08-29 10:59:00,
2013-08-29 07:02:00,64.8,42.3,26.69,SW,224,0.0,0.0,44,0.00,CLR,,0.00,WeatherDisplay:10.37,2013-08-29 11:02:00,
2013-08-29 07:03:00,64.8,42.3,26.69,SW,224,0.0,0.0,44,0.00,CLR,,0.00,WeatherDisplay:10.37,2013-08-29 11:03:00,
2013-08-29 07:04:00,64.8,42.3,26.69,SW,224,0.0,0.0,44,0.00,CLR,,0.00,WeatherDisplay:10.37,2013-08-29 11:04:00,
2013-08-29 07:05:00,64.8,42.3,0.00,SW,224,0.0,0.0,44,0.00,CLR,,0.00,WeatherDisplay:10.37,2013-08-29 11:05:00,
2013-08-29 07:09:00,64.8,42.3,26.69,SW,224,0.0,0.0,44,0.00,CLR,,0.00,WeatherDisplay:10.37,2013-08-29 11:09:00,
2013-08-29 07:10:00,64.8,42.3,0.00,SW,224,0.0,0.0,44,0.00,CLR,,0.00,WeatherDisplay:10.37,2013-08-29 11:10:00,
2013-08-29 07:15:00,64.8,42.3,0.00,SW,224,0.0,0.0,44,0.00,CLR,,0.00,WeatherDisplay:10.37,2013-08-29 11:15:00,
2013-08-29 07:16:00,64.8,42.3,26.69,SW,224,0.0,0.0,44,0.00,CLR,,0.00,WeatherDisplay:10.37,2013-08-29 11:16:00,
2013-08-29 07:17:00,64.8,42.3,26.69,SW,224,0.0,0.0,44,0.00,CLR,,0.00,WeatherDisplay:10.37,2013-08-29 11:17:00,
2013-08-29 07:20:00,64.8,42.3,26.69,SW,224,0.0,0.0,44,0.00,CLR,,0.00,WeatherDisplay:10.37,2013-08-29 11:20:00,
2013-08-29 07:22:00,64.8,42.3,26.69,SW,224,0.0,0.0,44,0.00,CLR,,0.00,WeatherDisplay:10.37,2013-08-29 11:22:00,
2013-08-29 07:23:00,64.8,42.3,26.69,SW,224,0.0,0.0,44,0.00,CLR,,0.00,WeatherDisplay:10.37,2013-08-29 11:23:00,
2013-08-29 07:26:00,64.8,42.3,26.69,SW,224,0.0,0.0,44,0.00,CLR,,0.00,WeatherDisplay:10.37,2013-08-29 11:26:00,
2013-08-29 07:27:00,64.8,42.3,26.69,SW,224,0.0,0.0,44,0.00,CLR,,0.00,WeatherDisplay:10.37,2013-08-29 11:27:00,
2013-08-29 07:28:00,64.8,42.3,26.69,SW,224,0.0,0.0,44,0.00,CLR,,0.00,WeatherDisplay:10.37,2013-08-29 11:28:00,
2013-08-29 07:29:00,64.8,42.3,26.69,SW,224,0.0,0.0,44,0.00,CLR,,0.00,WeatherDisplay:10.37,2013-08-29 11:29:00,
2013-08-29 07:30:00,64.9,42.5,26.69,SW,224,0.0,0.0,44,0.00,CLR,,0.00,WeatherDisplay:10.37,2013-08-29 11:30:00,
2013-08-29 07:31:00,64.9,42.5,26.69,SW,224,0.0,0.0,44,0.00,CLR,,0.00,WeatherDisplay:10.37,2013-08-29 11:31:00,
2013-08-29 07:34:00,65.1,42.7,26.69,SW,224,0.0,0.0,44,0.00,CLR,,0.00,WeatherDisplay:10.37,2013-08-29 11:34:00,
2013-08-29 07:35:00,65.1,42.7,0.00,SW,224,0.0,0.0,44,0.00,CLR,,0.00,WeatherDisplay:10.37,2013-08-29 11:35:00,
2013-08-29 07:39:00,65.1,42.7,26.69,SW,224,0.0,0.0,44,0.00,CLR,,0.00,WeatherDisplay:10.37,2013-08-29 11:39:00,
2013-08-29 07:41:00,65.3,42.8,26.69,SW,224,0.0,0.0,44,0.00,CLR,,0.00,WeatherDisplay:10.37,2013-08-29 11:41:00,
2013-08-29 07:42:00,65.3,42.8,26.69,SW,224,0.0,0.0,44,0.00,CLR,,0.00,WeatherDisplay:10.37,2013-08-29 11:42:00,
2013-08-29 07:44:00,65.5,43.0,26.69,SW,224,0.0,0.0,44,0.00,CLR,,0.00,WeatherDisplay:10.37,2013-08-29 11:44:00,
2013-08-29 07:46:00,65.5,43.0,26.69,SW,224,0.0,0.0,44,0.00,CLR,,0.00,WeatherDisplay:10.37,2013-08-29 11:46:00,
2013-08-29 07:47:00,65.7,43.1,26.69,SW,224,0.0,0.0,44,0.00,CLR,,0.00,WeatherDisplay:10.37,2013-08-29 11:47:00,
2013-08-29 07:49:00,65.8,43.3,26.69,SW,224,0.0,0.0,44,0.00,CLR,,0.00,WeatherDisplay:10.37,2013-08-29 11:49:00,
2013-08-29 07:51:00,66.0,43.5,26.69,SW,224,0.0,0.0,44,0.00,CLR,,0.00,WeatherDisplay:10.37,2013-08-29 11:51:00,
2013-08-29 07:52:00,66.0,43.5,26.69,SW,224,0.0,0.0,44,0.00,CLR,,0.00,WeatherDisplay:10.37,2013-08-29 11:52:00,
2013-08-29 07:55:00,66.4,43.8,26.69,SW,224,0.0,0.0,44,0.00,CLR,,0.00,WeatherDisplay:10.37,2013-08-29 11:55:00,
2013-08-29 07:57:00,67.5,44.8,26.69,SW,224,0.0,0.0,44,0.00,CLR,,0.00,WeatherDisplay:10.37,2013-08-29 11:57:00,
2013-08-29 07:59:00,69.1,46.2,26.69,SW,224,0.0,0.0,44,0.00,CLR,,0.00,WeatherDisplay:10.37,2013-08-29 11:59:00,
2013-08-29 08:00:00,70.2,46.6,26.69,SW,224,0.0,0.0,43,0.00,CLR,,0.00,WeatherDisplay:10.37,2013-08-29 12:00:00,
2013-08-29 08:01:00,71.1,46.8,26.69,SW,224,0.0,0.0,42,0.00,CLR,,0.00,WeatherDisplay:10.37,2013-08-29 12:01:00,
2013-08-29 08:03:00,73.2,47.4,26.69,SW,224,0.0,0.0,40,0.00,CLR,,0.00,WeatherDisplay:10.37,2013-08-29 12:03:00,
2013-08-29 08:05:00,75.9,49.2,26.69,SW,224,0.0,0.0,39,0.00,CLR,,0.00,WeatherDisplay:10.37,2013-08-29 12:05:00,
2013-08-29 08:06:00,75.9,49.2,26.69,SW,224,0.0,0.0,39,0.00,CLR,,0.00,WeatherDisplay:10.37,2013-08-29 12:06:00,
2013-08-29 08:10:00,78.4,44.3,0.00,SW,224,0.0,0.0,30,0.00,CLR,,0.00,WeatherDisplay:10.37,2013-08-29 12:10:00,
2013-08-29 08:12:00,80.2,43.2,26.69,SW,224,0.0,0.0,27,0.00,CLR,,0.00,WeatherDisplay:10.37,2013-08-29 12:12:00,
2013-08-29 08:13:00,81.5,46.2,26.69,SW,224,0.0,0.0,29,0.00,CLR,,0.00,WeatherDisplay:10.37,2013-08-29 12:13:00,
2013-08-29 08:15:00,81.9,44.6,0.00,SW,224,0.0,0.0,27,0.00,CLR,,0.00,WeatherDisplay:10.37,2013-08-29 12:15:00,
2013-08-29 08:18:00,83.8,40.9,26.69,SW,224,0.0,0.0,22,0.00,CLR,,0.00,WeatherDisplay:10.37,2013-08-29 12:18:00,
2013-08-29 08:19:00,84.0,41.1,26.69,SW,224,0.0,0.0,22,0.00,CLR,,0.00,WeatherDisplay:10.37,2013-08-29 12:19:00,
2013-08-29 08:20:00,83.9,41.0,0.00,SW,224,0.0,0.0,22,0.00,CLR,,0.00,WeatherDisplay:10.37,2013-08-29 12:20:00,
2013-08-29 08:25:00,86.7,42.1,0.00,SW,224,0.0,0.0,21,0.00,CLR,,0.00,WeatherDisplay:10.37,2013-08-29 12:25:00,
2013-08-29 08:26:00,87.3,40.0,26.69,SW,224,0.0,0.0,19,0.00,CLR,,0.00,WeatherDisplay:10.37,2013-08-29 12:26:00,
2013-08-29 08:28:00,87.8,40.4,26.69,SW,224,0.0,0.0,19,0.00,CLR,,0.00,WeatherDisplay:10.37,2013-08-29 12:28:00,
2013-08-29 08:30:00,88.2,40.7,26.69,SW,224,0.0,0.0,19,0.00,CLR,,0.00,WeatherDisplay:10.37,2013-08-29 12:30:00,
2013-08-29 08:31:00,88.0,40.5,26.69,SW,224,0.0,0.0,19,0.00,CLR,,0.00,WeatherDisplay:10.37,2013-08-29 12:31:00,
2013-08-29 08:32:00,87.8,40.4,26.69,SW,224,0.0,0.0,19,0.00,CLR,,0.00,WeatherDisplay:10.37,2013-08-29 12:32:00,
2013-08-29 08:35:00,86.9,39.7,26.69,SW,224,0.0,0.0,19,0.00,CLR,,0.00,WeatherDisplay:10.37,2013-08-29 12:35:00,
2013-08-29 08:36:00,86.5,39.4,26.69,SW,224,0.0,0.0,19,0.00,CLR,,0.00,WeatherDisplay:10.37,2013-08-29 12:36:00,
2013-08-29 08:38:00,84.2,38.8,26.69,SW,224,0.0,0.0,20,0.00,CLR,,0.00,WeatherDisplay:10.37,2013-08-29 12:38:00,
2013-08-29 08:41:00,82.4,38.5,26.69,SW,224,0.0,0.0,21,0.00,CLR,,0.00,WeatherDisplay:10.37,2013-08-29 12:41:00,
2013-08-29 08:42:00,82.0,38.2,26.69,SW,224,0.0,0.0,21,0.00,CLR,,0.00,WeatherDisplay:10.37,2013-08-29 12:42:00,
2013-08-29 08:43:00,81.7,37.9,26.69,SW,224,0.0,0.0,21,0.00,CLR,,0.00,WeatherDisplay:10.37,2013-08-29 12:43:00,
2013-08-29 08:44:00,81.5,37.8,26.69,SW,224,0.0,0.0,21,0.00,CLR,,0.00,WeatherDisplay:10.37,2013-08-29 12:44:00,
2013-08-29 08:48:00,79.3,37.2,26.69,SW,224,0.0,0.0,22,0.00,CLR,,0.00,WeatherDisplay:10.37,2013-08-29 12:48:00,
2013-08-29 08:49:00,79.3,38.3,26.69,SW,224,0.0,0.0,23,0.00,CLR,,0.00,WeatherDisplay:10.37,2013-08-29 12:49:00,
2013-08-29 08:50:00,79.0,36.9,26.69,SW,224,0.0,0.0,22,0.00,CLR,,0.00,WeatherDisplay:10.37,2013-08-29 12:50:00,
2013-08-29 08:54:00,78.4,37.6,26.69,SW,224,0.0,0.0,23,0.00,CLR,,0.00,WeatherDisplay:10.37,2013-08-29 12:54:00,
2013-08-29 08:55:00,78.4,37.6,0.00,SW,224,0.0,0.0,23,0.00,CLR,,0.00,WeatherDisplay:10.37,2013-08-29 12:55:00,
2013-08-29 08:56:00,78.4,37.6,26.69,SW,224,0.0,0.0,23,0.00,CLR,,0.00,WeatherDisplay:10.37,2013-08-29 12:56:00,
2013-08-29 09:00:00,78.4,38.6,0.00,SW,224,0.0,0.0,24,0.00,CLR,,0.00,WeatherDisplay:10.37,2013-08-29 13:00:00,
2013-08-29 09:01:00,79.3,38.3,26.69,SW,224,0.0,0.0,23,0.00,CLR,,0.00,WeatherDisplay:10.37,2013-08-29 13:01:00,
2013-08-29 09:02:00,80.4,39.2,26.69,SW,224,0.0,0.0,23,0.00,CLR,,0.00,WeatherDisplay:10.37,2013-08-29 13:02:00,
2013-08-29 09:05:00,82.4,38.5,26.69,SW,224,0.0,0.0,21,0.00,CLR,,0.00,WeatherDisplay:10.37,2013-08-29 13:05:00,
2013-08-29 09:07:00,82.8,38.8,26.69,SW,224,0.0,0.0,21,0.00,CLR,,0.00,WeatherDisplay:10.37,2013-08-29 13:07:00,
2013-08-29 09:09:00,82.6,38.7,26.69,SW,224,0.0,0.0,21,0.00,CLR,,0.00,WeatherDisplay:10.37,2013-08-29 13:09:00,
2013-08-29 09:10:00,82.6,38.7,26.69,SW,224,0.0,0.0,21,0.00,CLR,,0.00,WeatherDisplay:10.37,2013-08-29 13:10:00,
2013-08-29 09:11:00,82.6,38.7,26.69,SW,224,0.0,0.0,21,0.00,CLR,,0.00,WeatherDisplay:10.37,2013-08-29 13:11:00,
2013-08-29 09:13:00,82.2,38.4,26.69,SW,224,0.0,0.0,21,0.00,CLR,,0.00,WeatherDisplay:10.37,2013-08-29 13:13:00,
2013-08-29 09:14:00,81.7,37.9,26.69,SW,224,0.0,0.0,21,0.00,CLR,,0.00,WeatherDisplay:10.37,2013-08-29 13:14:00,
2013-08-29 09:16:00,81.7,37.9,26.69,SW,224,0.0,0.0,21,0.00,CLR,,0.00,WeatherDisplay:10.37,2013-08-29 13:16:00,
2013-08-29 09:17:00,81.7,39.1,26.69,SW,224,0.0,0.0,22,0.00,CLR,,0.00,WeatherDisplay:10.37,2013-08-29 13:17:00,
2013-08-29 09:19:00,82.0,38.2,26.69,SW,224,0.0,0.0,21,0.00,CLR,,0.00,WeatherDisplay:10.37,2013-08-29 13:19:00,
2013-08-29 09:20:00,82.4,38.5,26.69,SW,224,0.0,0.0,21,0.00,CLR,,0.00,WeatherDisplay:10.37,2013-08-29 13:20:00,
2013-08-29 09:22:00,82.9,39.0,26.69,SW,224,0.0,0.0,21,0.00,CLR,,0.00,WeatherDisplay:10.37,2013-08-29 13:22:00,
2013-08-29 09:23:00,83.1,39.1,26.69,SW,224,0.0,0.0,21,0.00,CLR,,0.00,WeatherDisplay:10.37,2013-08-29 13:23:00,
2013-08-29 09:27:00,84.2,38.8,26.69,SW,224,0.0,0.0,20,0.00,CLR,,0.00,WeatherDisplay:10.37,2013-08-29 13:27:00,
2013-08-29 09:28:00,84.2,38.8,26.69,SW,224,0.0,0.0,20,0.00,CLR,,0.00,WeatherDisplay:10.37,2013-08-29 13:28:00,
2013-08-29 09:29:00,84.0,38.6,26.69,SW,224,0.0,0.0,20,0.00,CLR,,0.00,WeatherDisplay:10.37,2013-08-29 13:29:00,
2013-08-29 09:31:00,84.9,39.4,26.69,SW,224,0.0,0.0,20,0.00,CLR,,0.00,WeatherDisplay:10.37,2013-08-29 13:31:00,
2013-08-29 09:32:00,85.8,40.1,26.69,SW,224,0.0,0.0,20,0.00,CLR,,0.00,WeatherDisplay:10.37,2013-08-29 13:32:00,
2013-08-29 09:33:00,86.0,38.9,26.69,SW,224,0.0,0.0,19,0.00,CLR,,0.00,WeatherDisplay:10.37,2013-08-29 13:33:00,
2013-08-29 09:34:00,86.4,39.2,26.69,SW,224,0.0,0.0,19,0.00,CLR,,0.00,WeatherDisplay:10.37,2013-08-29 13:34:00,
2013-08-29 09:36:00,86.7,39.5,26.69,SW,224,0.0,0.0,19,0.00,CLR,,0.00,WeatherDisplay:10.37,2013-08-29 13:36:00,
2013-08-29 09:39:00,86.4,39.2,26.69,SW,224,0.0,0.0,19,0.00,CLR,,0.00,WeatherDisplay:10.37,2013-08-29 13:39:00,
2013-08-29 09:40:00,85.8,40.1,26.69,SW,224,0.0,0.0,20,0.00,CLR,,0.00,WeatherDisplay:10.37,2013-08-29 13:40:00,
2013-08-29 09:41:00,85.5,39.8,26.69,SE,143,0.0,0.0,20,0.00,CLR,,0.00,WeatherDisplay:10.37,2013-08-29 13:41:00,
2013-08-29 09:45:00,84.8,39.3,0.00,South,180,0.0,0.0,20,0.00,CLR,,0.00,WeatherDisplay:10.37,2013-08-29 13:45:00,
2013-08-29 09:46:00,84.4,38.9,26.69,SE,143,0.0,0.0,20,0.00,CLR,,0.00,WeatherDisplay:10.37,2013-08-29 13:46:00,
2013-08-29 09:49:00,83.7,38.3,26.69,SE,143,0.0,0.0,20,0.00,CLR,,0.00,WeatherDisplay:10.37,2013-08-29 13:49:00,
2013-08-29 09:50:00,83.3,38.0,26.69,SE,143,0.0,0.0,20,0.00,CLR,,0.00,WeatherDisplay:10.37,2013-08-29 13:50:00,
2013-08-29 09:51:00,83.3,38.0,26.69,SE,143,0.0,0.0,20,0.00,CLR,,0.00,WeatherDisplay:10.37,2013-08-29 13:51:00,
2013-08-29 09:55:00,83.3,39.3,0.00,SE,138,0.0,0.0,21,0.00,CLR,,0.00,WeatherDisplay:10.37,2013-08-29 13:55:00,
2013-08-29 09:56:00,83.5,38.2,26.69,East,86,0.0,0.0,20,0.00,CLR,,0.00,WeatherDisplay:10.37,2013-08-29 13:56:00,
2013-08-29 09:57:00,83.5,38.2,26.69,East,86,0.0,0.0,20,0.00,CLR,,0.00,WeatherDisplay:10.37,2013-08-29 13:57:00,
2013-08-29 09:58:00,83.5,38.2,26.69,East,86,0.0,0.0,20,0.00,CLR,,0.00,WeatherDisplay:10.37,2013-08-29 13:58:00,
2013-08-29 10:00:00,84.0,38.6,26.69,East,86,0.0,0.0,20,0.00,CLR,,0.00,WeatherDisplay:10.37,2013-08-29 14:00:00,
2013-08-29 10:02:00,85.1,39.5,26.69,East,90,0.0,0.0,20,0.00,CLR,,0.00,WeatherDisplay:10.37,2013-08-29 14:02:00,
2013-08-29 10:03:00,85.6,40.0,26.69,East,90,0.0,0.0,20,0.00,CLR,,0.00,WeatherDisplay:10.37,2013-08-29 14:03:00,
2013-08-29 10:04:00,86.9,39.7,26.69,East,90,0.0,0.0,19,0.00,CLR,,0.00,WeatherDisplay:10.37,2013-08-29 14:04:00,
2013-08-29 10:05:00,87.8,40.4,26.69,East,90,0.0,0.0,19,0.00,CLR,,0.00,WeatherDisplay:10.37,2013-08-29 14:05:00,
2013-08-29 10:06:00,88.0,40.5,26.69,East,90,0.0,0.0,19,0.00,CLR,,0.00,WeatherDisplay:10.37,2013-08-29 14:06:00,
2013-08-29 10:07:00,88.7,41.1,26.69,East,90,0.0,0.0,19,0.00,CLR,,0.00,WeatherDisplay:10.37,2013-08-29 14:07:00,
2013-08-29 10:08:00,89.8,40.6,26.69,NNE,32,0.0,0.0,18,0.00,CLR,,0.00,WeatherDisplay:10.37,2013-08-29 14:08:00,
2013-08-29 10:10:00,89.8,40.6,0.00,East,99,0.0,0.0,18,0.00,CLR,,0.00,WeatherDisplay:10.37,2013-08-29 14:10:00,
2013-08-29 10:12:00,87.3,40.0,26.69,South,180,0.0,0.0,19,0.00,CLR,,0.00,WeatherDisplay:10.37,2013-08-29 14:12:00,
2013-08-29 10:13:00,86.7,39.5,26.69,East,79,0.0,0.0,19,0.00,CLR,,0.00,WeatherDisplay:10.37,2013-08-29 14:13:00,
2013-08-29 10:17:00,83.7,38.3,26.69,East,99,0.0,0.0,20,0.00,CLR,,0.00,WeatherDisplay:10.37,2013-08-29 14:17:00,
2013-08-29 10:18:00,83.5,38.2,26.69,East,93,0.0,0.0,20,0.00,CLR,,0.00,WeatherDisplay:10.37,2013-08-29 14:18:00,
2013-08-29 10:19:00,82.9,39.0,26.69,East,93,0.0,0.0,21,0.00,CLR,,0.00,WeatherDisplay:10.37,2013-08-29 14:19:00,
2013-08-29 10:22:00,81.1,37.5,26.69,East,89,0.0,0.0,21,0.00,CLR,,0.00,WeatherDisplay:10.37,2013-08-29 14:22:00,
2013-08-29 10:23:00,81.0,37.3,26.69,South,171,0.0,0.0,21,0.00,CLR,,0.00,WeatherDisplay:10.37,2013-08-29 14:23:00,
2013-08-29 10:24:00,80.8,38.4,26.69,South,177,0.0,0.0,22,0.00,CLR,,0.00,WeatherDisplay:10.37,2013-08-29 14:24:00,
2013-08-29 10:25:00,80.4,38.1,26.69,ESE,103,0.0,0.0,22,0.00,CLR,,0.00,WeatherDisplay:10.37,2013-08-29 14:25:00,
2013-08-29 10:26:00,80.4,38.1,26.69,South,190,0.0,0.0,22,0.00,CLR,,0.00,WeatherDisplay:10.37,2013-08-29 14:26:00,
2013-08-29 10:29:00,80.2,37.9,26.69,ESE,105,0.0,0.0,22,0.00,CLR,,0.00,WeatherDisplay:10.37,2013-08-29 14:29:00,
2013-08-29 10:30:00,80.2,39.1,26.69,ESE,105,0.0,0.0,23,0.00,CLR,,0.00,WeatherDisplay:10.37,2013-08-29 14:30:00,
2013-08-29 10:31:00,80.4,38.1,26.69,WSW,246,0.0,0.0,22,0.00,CLR,,0.00,WeatherDisplay:10.37,2013-08-29 14:31:00,
2013-08-29 10:33:00,80.8,38.4,26.69,WSW,246,0.0,0.0,22,0.00,CLR,,0.00,WeatherDisplay:10.37,2013-08-29 14:33:00,
2013-08-29 10:36:00,82.2,39.6,26.69,WSW,246,0.0,0.0,22,0.00,CLR,,0.00,WeatherDisplay:10.37,2013-08-29 14:36:00,
2013-08-29 10:38:00,83.3,39.3,26.69,NNE,20,0.0,0.0,21,0.00,CLR,,0.00,WeatherDisplay:10.37,2013-08-29 14:38:00,
2013-08-29 10:39:00,83.3,39.3,26.69,NNE,20,0.0,0.0,21,0.00,CLR,,0.00,WeatherDisplay:10.37,2013-08-29 14:39:00,
2013-08-29 10:40:00,84.0,39.9,26.69,SW,232,0.0,0.0,21,0.00,CLR,,0.00,WeatherDisplay:10.37,2013-08-29 14:40:00,
2013-08-29 10:41:00,83.8,39.7,26.69,SW,232,0.0,0.0,21,0.00,CLR,,0.00,WeatherDisplay:10.37,2013-08-29 14:41:00,
2013-08-29 10:42:00,84.0,39.9,26.69,SSW,205,0.0,0.0,21,0.00,CLR,,0.00,WeatherDisplay:10.37,2013-08-29 14:42:00,
2013-08-29 10:44:00,84.0,39.9,26.69,SSE,155,0.0,0.0,21,0.00,CLR,,0.00,WeatherDisplay:10.37,2013-08-29 14:44:00,
2013-08-29 10:45:00,84.0,39.9,0.00,SSW,198,0.0,0.0,21,0.00,CLR,,0.00,WeatherDisplay:10.37,2013-08-29 14:45:00,
2013-08-29 10:48:00,84.6,39.1,26.69,SE,145,0.0,0.0,20,0.00,CLR,,0.00,WeatherDisplay:10.37,2013-08-29 14:48:00,
2013-08-29 10:49:00,85.5,39.8,26.69,SE,140,0.0,0.0,20,0.00,CLR,,0.00,WeatherDisplay:10.37,2013-08-29 14:49:00,
2013-08-29 10:50:00,85.5,39.8,26.69,SE,140,0.0,0.0,20,0.00,CLR,,0.00,WeatherDisplay:10.37,2013-08-29 14:50:00,
2013-08-29 10:54:00,87.8,40.4,26.69,SE,145,0.0,0.0,19,0.00,CLR,,0.00,WeatherDisplay:10.37,2013-08-29 14:54:00,
2013-08-29 10:55:00,87.8,40.4,0.00,SE,144,0.0,0.0,19,0.00,CLR,,0.00,WeatherDisplay:10.37,2013-08-29 14:55:00,
2013-08-29 10:56:00,88.2,40.7,26.69,East,97,0.0,0.0,19,0.00,CLR,,0.00,WeatherDisplay:10.37,2013-08-29 14:56:00,
2013-08-29 10:59:00,88.2,40.7,26.69,East,94,0.0,0.0,19,0.00,CLR,,0.00,WeatherDisplay:10.37,2013-08-29 14:59:00,
2013-08-29 11:01:00,88.2,40.7,26.69,SSE,154,0.0,0.0,19,0.00,CLR,,0.00,WeatherDisplay:10.37,2013-08-29 15:01:00,
2013-08-29 11:02:00,87.8,40.4,26.69,SSE,164,0.0,0.0,19,0.00,CLR,,0.00,WeatherDisplay:10.37,2013-08-29 15:02:00,
2013-08-29 11:04:00,87.3,40.0,26.69,East,81,0.0,0.0,19,0.00,CLR,,0.00,WeatherDisplay:10.37,2013-08-29 15:04:00,
2013-08-29 11:07:00,86.7,39.5,26.69,East,95,0.0,0.0,19,0.00,CLR,,0.00,WeatherDisplay:10.37,2013-08-29 15:07:00,
2013-08-29 11:08:00,86.5,39.4,26.69,East,95,0.0,0.0,19,0.00,CLR,,0.00,WeatherDisplay:10.37,2013-08-29 15:08:00,
2013-08-29 11:09:00,86.5,39.4,26.69,East,95,0.0,0.0,19,0.00,CLR,,0.00,WeatherDisplay:10.37,2013-08-29 15:09:00,
2013-08-29 11:11:00,86.7,39.5,26.69,East,95,0.0,0.0,19,0.00,CLR,,0.00,WeatherDisplay:10.37,2013-08-29 15:11:00,
2013-08-29 11:12:00,86.9,39.7,26.69,East,95,0.0,0.0,19,0.00,CLR,,0.00,WeatherDisplay:10.37,2013-08-29 15:12:00,
2013-08-29 11:14:00,86.7,39.5,26.69,East,95,0.0,0.0,19,0.00,CLR,,0.00,WeatherDisplay:10.37,2013-08-29 15:14:00,
2013-08-29 11:16:00,87.1,39.8,26.69,East,98,0.0,0.0,19,0.00,CLR,,0.00,WeatherDisplay:10.37,2013-08-29 15:16:00,
2013-08-29 11:17:00,87.3,40.0,26.69,East,98,0.0,0.0,19,0.00,CLR,,0.00,WeatherDisplay:10.37,2013-08-29 15:17:00,
2013-08-29 11:18:00,87.6,40.3,26.69,East,98,0.0,0.0,19,0.00,CLR,,0.00,WeatherDisplay:10.37,2013-08-29 15:18:00,
2013-08-29 11:19:00,87.6,40.3,26.69,East,96,0.0,0.0,19,0.00,CLR,,0.00,WeatherDisplay:10.37,2013-08-29 15:19:00,
2013-08-29 11:23:00,87.6,40.3,26.69,SW,224,0.0,0.0,19,0.00,CLR,,0.00,WeatherDisplay:10.37,2013-08-29 15:23:00,
2013-08-29 11:24:00,87.6,40.3,26.69,SW,223,0.0,0.0,19,0.00,CLR,,0.00,WeatherDisplay:10.37,2013-08-29 15:24:00,
2013-08-29 11:25:00,88.3,39.5,26.69,SW,223,0.0,0.0,18,0.00,CLR,,0.00,WeatherDisplay:10.37,2013-08-29 15:25:00,
2013-08-29 11:26:00,88.9,39.9,26.69,East,89,0.0,0.0,18,0.00,CLR,,0.00,WeatherDisplay:10.37,2013-08-29 15:26:00,
2013-08-29 11:27:00,89.2,40.2,26.69,East,90,0.0,0.0,18,0.00,CLR,,0.00,WeatherDisplay:10.37,2013-08-29 15:27:00,
2013-08-29 11:29:00,90.9,41.5,26.69,East,90,0.0,0.0,18,0.00,CLR,,0.00,WeatherDisplay:10.37,2013-08-29 15:29:00,
2013-08-29 11:31:00,91.8,40.7,26.69,East,90,0.0,0.0,17,0.00,CLR,,0.00,WeatherDisplay:10.37,2013-08-29 15:31:00,
2013-08-29 11:32:00,92.3,41.2,26.69,East,90,0.0,0.0,17,0.00,CLR,,0.00,WeatherDisplay:10.37,2013-08-29 15:32:00,
2013-08-29 11:35:00,93.9,42.5,26.69,East,97,0.0,0.0,17,0.00,CLR,,0.00,WeatherDisplay:10.37,2013-08-29 15:35:00,
2013-08-29 11:37:00,93.2,41.9,26.69,East,97,0.0,0.0,17,0.00,CLR,,0.00,WeatherDisplay:10.37,2013-08-29 15:37:00,
2013-08-29 11:38:00,92.8,41.6,26.69,East,97,0.0,0.0,17,0.00,CLR,,0.00,WeatherDisplay:10.37,2013-08-29 15:38:00,
2013-08-29 11:39:00,92.8,41.6,26.69,East,97,0.0,0.0,17,0.00,CLR,,0.00,WeatherDisplay:10.37,2013-08-29 15:39:00,
2013-08-29 11:42:00,91.9,40.9,26.69,East,100,0.0,0.0,17,0.00,CLR,,0.00,WeatherDisplay:10.37,2013-08-29 15:42:00,
2013-08-29 11:43:00,91.2,41.8,26.69,East,101,0.0,0.0,18,0.00,CLR,,0.00,WeatherDisplay:10.37,2013-08-29 15:43:00,
2013-08-29 11:44:00,90.7,41.3,26.69,East,101,0.0,0.0,18,0.00,CLR,,0.00,WeatherDisplay:10.37,2013-08-29 15:44:00,
2013-08-29 11:45:00,90.8,41.4,0.00,East,99,0.0,0.0,18,0.00,CLR,,0.00,WeatherDisplay:10.37,2013-08-29 15:45:00,
2013-08-29 11:47:00,91.6,40.6,26.69,East,101,0.0,0.0,17,0.00,CLR,,0.00,WeatherDisplay:10.37,2013-08-29 15:47:00,
2013-08-29 11:48:00,91.8,40.7,26.69,ESE,102,0.0,0.0,17,0.00,CLR,,0.00,WeatherDisplay:10.37,2013-08-29 15:48:00,
2013-08-29 11:50:00,91.2,40.3,0.00,East,101,0.0,0.0,17,0.00,CLR,,0.00,WeatherDisplay:10.37,2013-08-29 15:50:00,
2013-08-29 11:51:00,90.0,40.8,26.69,ENE,68,0.0,0.0,18,0.00,CLR,,0.00,WeatherDisplay:10.37,2013-08-29 15:51:00,
2013-08-29 11:55:00,89.3,40.3,0.00,East,94,0.0,0.0,18,0.00,CLR,,0.00,WeatherDisplay:10.37,2013-08-29 15:55:00,
2013-08-29 11:56:00,88.3,39.5,26.69,ENE,71,0.0,0.0,18,0.00,CLR,,0.00,WeatherDisplay:10.37,2013-08-29 15:56:00,
2013-08-29 12:00:00,87.6,38.8,0.00,ENE,74,0.0,0.0,18,0.00,CLR,,0.00,WeatherDisplay:10.37,2013-08-29 16:00:00,
2013-08-29 12:01:00,86.9,39.7,26.69,ENE,76,0.0,0.0,19,0.00,CLR,,0.00,WeatherDisplay:10.37,2013-08-29 16:01:00,
2013-08-29 12:02:00,86.5,39.4,26.69,ENE,76,0.0,0.0,19,0.00,CLR,,0.00,WeatherDisplay:10.37,2013-08-29 16:02:00,
2013-08-29 12:05:00,85.3,38.3,26.69,ESE,105,0.0,0.0,19,0.00,CLR,,0.00,WeatherDisplay:10.37,2013-08-29 16:05:00,
2013-08-29 12:06:00,85.3,38.3,26.69,ESE,105,0.0,0.0,19,0.00,CLR,,0.00,WeatherDisplay:10.37,2013-08-29 16:06:00,
2013-08-29 12:07:00,85.5,38.5,26.69,ESE,105,0.0,0.0,19,0.00,CLR,,0.00,WeatherDisplay:10.37,2013-08-29 16:07:00,
2013-08-29 12:08:00,85.6,38.6,26.69,ESE,105,0.0,0.0,19,0.00,CLR,,0.00,WeatherDisplay:10.37,2013-08-29 16:08:00,
2013-08-29 12:10:00,86.2,39.1,26.69,ESE,105,0.0,0.0,19,0.00,CLR,,0.00,WeatherDisplay:10.37,2013-08-29 16:10:00,
2013-08-29 12:11:00,86.4,37.8,26.69,SE,125,0.0,0.0,18,0.00,CLR,,0.00,WeatherDisplay:10.37,2013-08-29 16:11:00,
2013-08-29 12:13:00,86.5,39.4,26.69,East,98,0.0,0.0,19,0.00,CLR,,0.00,WeatherDisplay:10.37,2013-08-29 16:13:00,
2013-08-29 12:14:00,86.9,38.3,26.69,ESE,103,0.0,0.0,18,0.00,CLR,,0.00,WeatherDisplay:10.37,2013-08-29 16:14:00,
2013-08-29 12:15:00,86.7,38.1,0.00,ESE,105,0.0,0.0,18,0.00,CLR,,0.00,WeatherDisplay:10.37,2013-08-29 16:15:00,
2013-08-29 12:18:00,87.4,38.7,26.69,ESE,104,0.0,0.0,18,0.00,CLR,,0.00,WeatherDisplay:10.37,2013-08-29 16:18:00,
2013-08-29 12:19:00,87.3,40.0,26.69,SSE,153,0.0,0.0,19,0.00,CLR,,0.00,WeatherDisplay:10.37,2013-08-29 16:19:00,
2013-08-29 12:20:00,87.2,39.9,0.00,ESE,116,0.0,0.0,19,0.00,CLR,,0.00,WeatherDisplay:10.37,2013-08-29 16:20:00,
2013-08-29 12:22:00,87.1,39.8,26.69,SSE,151,0.0,0.0,19,0.00,CLR,,0.00,WeatherDisplay:10.37,2013-08-29 16:22:00,
2013-08-29 12:24:00,87.3,38.6,26.69,East,85,0.0,0.0,18,0.00,CLR,,0.00,WeatherDisplay:10.37,2013-08-29 16:24:00,
2013-08-29 12:25:00,87.1,38.4,26.69,ESE,111,0.0,0.0,18,0.00,CLR,,0.00,WeatherDisplay:10.37,2013-08-29 16:25:00,
2013-08-29 12:29:00,86.0,38.9,26.69,ESE,111,0.0,0.0,19,0.00,CLR,,0.00,WeatherDisplay:10.37,2013-08-29 16:29:00,
2013-08-29 12:30:00,86.0,38.9,26.69,ESE,111,0.0,0.0,19,0.00,CLR,,0.00,WeatherDisplay:10.37,2013-08-29 16:30:00,
2013-08-29 12:31:00,85.8,38.8,26.69,ESE,109,0.0,0.0,19,0.00,CLR,,0.00,WeatherDisplay:10.37,2013-08-29 16:31:00,
2013-08-29 12:33:00,85.3,38.3,26.69,South,181,0.0,0.0,19,0.00,CLR,,0.00,WeatherDisplay:10.37,2013-08-29 16:33:00,
2013-08-29 12:34:00,85.1,38.2,26.69,South,181,0.0,0.0,19,0.00,CLR,,0.00,WeatherDisplay:10.37,2013-08-29 16:34:00,
2013-08-29 12:35:00,85.1,38.2,0.00,SE,139,0.0,0.0,19,0.00,CLR,,0.00,WeatherDisplay:10.37,2013-08-29 16:35:00,
2013-08-29 12:36:00,85.1,38.2,26.69,South,181,0.0,0.0,19,0.00,CLR,,0.00,WeatherDisplay:10.37,2013-08-29 16:36:00,
2013-08-29 12:40:00,85.1,38.2,0.00,SSE,163,0.0,0.0,19,0.00,CLR,,0.00,WeatherDisplay:10.37,2013-08-29 16:40:00,
2013-08-29 12:41:00,85.3,38.3,26.69,West,262,0.0,0.0,19,0.00,CLR,,0.00,WeatherDisplay:10.37,2013-08-29 16:41:00,
2013-08-29 12:42:00,85.1,38.2,26.69,West,262,0.0,0.0,19,0.00,CLR,,0.00,WeatherDisplay:10.37,2013-08-29 16:42:00,
2013-08-29 12:43:00,85.1,38.2,26.69,West,262,0.0,0.0,19,0.00,CLR,,0.00,WeatherDisplay:10.37,2013-08-29 16:43:00,
2013-08-29 12:44:00,85.1,38.2,26.69,SSW,205,0.0,0.0,19,0.00,CLR,,0.00,WeatherDisplay:10.37,2013-08-29 16:44:00,
2013-08-29 12:45:00,84.9,38.0,26.69,ESE,105,0.0,0.0,19,0.00,CLR,,0.00,WeatherDisplay:10.37,2013-08-29 16:45:00,
2013-08-29 12:48:00,84.2,37.5,26.69,SSE,161,0.0,0.0,19,0.00,CLR,,0.00,WeatherDisplay:10.37,2013-08-29 16:48:00,
2013-08-29 12:50:00,84.0,38.6,0.00,South,177,0.0,0.0,20,0.00,CLR,,0.00,WeatherDisplay:10.37,2013-08-29 16:50:00,
2013-08-29 12:53:00,83.7,38.3,26.69,East,83,0.0,0.0,20,0.00,CLR,,0.00,WeatherDisplay:10.37,2013-08-29 16:53:00,
2013-08-29 12:55:00,84.0,38.6,26.69,East,84,0.0,0.0,20,0.00,CLR,,0.00,WeatherDisplay:10.37,2013-08-29 16:55:00,
2013-08-29 12:56:00,84.6,37.8,26.69,ESE,103,0.0,0.0,19,0.00,CLR,,0.00,WeatherDisplay:10.37,2013-08-29 16:56:00,
2013-08-29 12:58:00,84.9,38.0,26.69,ESE,103,0.0,0.0,19,0.00,CLR,,0.00,WeatherDisplay:10.37,2013-08-29 16:58:00,
2013-08-29 12:59:00,84.9,38.0,26.69,ESE,115,0.0,0.0,19,0.00,CLR,,0.00,WeatherDisplay:10.37,2013-08-29 16:59:00,
2013-08-29 13:00:00,85.1,38.2,26.69,WSW,237,0.0,0.0,19,0.00,CLR,,0.00,WeatherDisplay:10.37,2013-08-29 17:00:00,
2013-08-29 13:03:00,84.9,38.0,26.69,SW,215,0.0,0.0,19,0.00,CLR,,0.00,WeatherDisplay:10.37,2013-08-29 17:03:00,
2013-08-29 13:05:00,85.0,38.1,0.00,South,169,0.0,0.0,19,0.00,CLR,,0.00,WeatherDisplay:10.37,2013-08-29 17:05:00,
2013-08-29 13:06:00,85.3,38.3,26.69,ESE,123,0.0,0.0,19,0.00,CLR,,0.00,WeatherDisplay:10.37,2013-08-29 17:06:00,
2013-08-29 13:07:00,85.3,38.3,26.69,ESE,123,0.0,0.0,19,0.00,CLR,,0.00,WeatherDisplay:10.37,2013-08-29 17:07:00,
2013-08-29 13:10:00,85.6,38.6,0.00,SE,142,0.0,0.0,19,0.00,CLR,,0.00,WeatherDisplay:10.37,2013-08-29 17:10:00,
2013-08-29 13:11:00,85.5,38.5,26.69,East,97,0.0,0.0,19,0.00,CLR,,0.00,WeatherDisplay:10.37,2013-08-29 17:11:00,
2013-08-29 13:12:00,85.3,38.3,26.69,East,97,0.0,0.0,19,0.00,CLR,,0.00,WeatherDisplay:10.37,2013-08-29 17:12:00,
2013-08-29 13:13:00,85.3,38.3,26.69,East,97,0.0,0.0,19,0.00,CLR,,0.00,WeatherDisplay:10.37,2013-08-29 17:13:00,
2013-08-29 13:15:00,85.1,38.2,26.69,East,97,0.0,0.0,19,0.00,CLR,,0.00,WeatherDisplay:10.37,2013-08-29 17:15:00,
2013-08-29 13:18:00,85.5,38.5,26.69,East,97,0.0,0.0,19,0.00,CLR,,0.00,WeatherDisplay:10.37,2013-08-29 17:18:00,
2013-08-29 13:20:00,85.8,38.8,26.69,East,97,0.0,0.0,19,0.00,CLR,,0.00,WeatherDisplay:10.37,2013-08-29 17:20:00,
2013-08-29 13:21:00,85.8,38.8,26.69,East,99,0.0,0.0,19,0.00,CLR,,0.00,WeatherDisplay:10.37,2013-08-29 17:21:00,
2013-08-29 13:25:00,86.0,38.9,0.00,East,98,0.0,0.0,19,0.00,CLR,,0.00,WeatherDisplay:10.37,2013-08-29 17:25:00,
2013-08-29 13:26:00,86.4,39.2,26.69,East,85,0.0,0.0,19,0.00,CLR,,0.00,WeatherDisplay:10.37,2013-08-29 17:26:00,
2013-08-29 13:28:00,86.7,39.5,26.69,East,84,0.0,0.0,19,0.00,CLR,,0.00,WeatherDisplay:10.37,2013-08-29 17:28:00,
2013-08-29 13:30:00,86.9,39.7,26.69,East,84,0.0,0.0,19,0.00,CLR,,0.00,WeatherDisplay:10.37,2013-08-29 17:30:00,
2013-08-29 13:31:00,87.1,39.8,26.69,WNW,297,0.0,0.0,19,0.00,CLR,,0.00,WeatherDisplay:10.37,2013-08-29 17:31:00,
2013-08-29 13:32:00,87.1,39.8,26.69,WNW,297,0.0,0.0,19,0.00,CLR,,0.00,WeatherDisplay:10.37,2013-08-29 17:32:00,
2013-08-29 13:36:00,87.1,38.4,26.69,ENE,64,0.0,0.0,18,0.00,CLR,,0.00,WeatherDisplay:10.37,2013-08-29 17:36:00,
2013-08-29 13:37:00,87.3,38.6,26.69,ENE,78,0.0,0.0,18,0.00,CLR,,0.00,WeatherDisplay:10.37,2013-08-29 17:37:00,
2013-08-29 13:38:00,87.3,38.6,26.69,ENE,78,0.0,0.0,18,0.00,CLR,,0.00,WeatherDisplay:10.37,2013-08-29 17:38:00,
2013-08-29 13:41:00,87.3,38.6,26.69,ENE,78,0.0,0.0,18,0.00,CLR,,0.00,WeatherDisplay:10.37,2013-08-29 17:41:00,
2013-08-29 13:42:00,87.3,38.6,26.69,ENE,78,0.0,0.0,18,0.00,CLR,,0.00,WeatherDisplay:10.37,2013-08-29 17:42:00,
2013-08-29 13:43:00,87.4,38.7,26.69,ENE,78,0.0,0.0,18,0.00,CLR,,0.00,WeatherDisplay:10.37,2013-08-29 17:43:00,
2013-08-29 13:44:00,87.6,38.9,26.69,NE,35,0.0,0.0,18,0.00,CLR,,0.00,WeatherDisplay:10.37,2013-08-29 17:44:00,
2013-08-29 13:49:00,88.2,39.3,26.69,East,85,0.0,0.0,18,0.00,CLR,,0.00,WeatherDisplay:10.37,2013-08-29 17:49:00,
2013-08-29 13:50:00,88.1,39.3,0.00,ESE,105,0.0,0.0,18,0.00,CLR,,0.00,WeatherDisplay:10.37,2013-08-29 17:50:00,
2013-08-29 13:51:00,88.3,39.5,26.69,East,99,0.0,0.0,18,0.00,CLR,,0.00,WeatherDisplay:10.37,2013-08-29 17:51:00,
2013-08-29 13:52:00,88.9,39.9,26.69,East,99,0.0,0.0,18,0.00,CLR,,0.00,WeatherDisplay:10.37,2013-08-29 17:52:00,
2013-08-29 13:53:00,88.9,39.9,26.69,East,99,0.0,0.0,18,0.00,CLR,,0.00,WeatherDisplay:10.37,2013-08-29 17:53:00,
2013-08-29 13:54:00,89.8,39.1,26.69,South,175,0.0,0.0,17,0.00,CLR,,0.00,WeatherDisplay:10.37,2013-08-29 17:54:00,
2013-08-29 13:55:00,90.0,39.3,26.69,ESE,112,0.0,0.0,17,0.00,CLR,,0.00,WeatherDisplay:10.37,2013-08-29 17:55:00,
2013-08-29 13:57:00,90.0,39.3,26.69,ESE,112,0.0,0.0,17,0.00,CLR,,0.00,WeatherDisplay:10.37,2013-08-29 17:57:00,
2013-08-29 13:58:00,90.0,39.3,26.69,SW,223,0.0,0.0,17,0.00,CLR,,0.00,WeatherDisplay:10.37,2013-08-29 17:58:00,
2013-08-29 13:59:00,90.3,39.6,26.69,SW,223,0.0,0.0,17,0.00,CLR,,0.00,WeatherDisplay:10.37,2013-08-29 17:59:00,
2013-08-29 14:00:00,90.2,39.5,0.00,SE,144,0.0,0.0,17,0.00,CLR,,0.00,WeatherDisplay:10.37,2013-08-29 18:00:00,
2013-08-29 14:01:00,91.9,40.9,26.69,SW,223,0.0,0.0,17,0.00,CLR,,0.00,WeatherDisplay:10.37,2013-08-29 18:01:00,
2013-08-29 14:03:00,92.8,41.6,26.69,ENE,72,0.0,0.0,17,0.00,CLR,,0.00,WeatherDisplay:10.37,2013-08-29 18:03:00,
2013-08-29 14:04:00,92.8,41.6,26.69,ENE,72,0.0,0.0,17,0.00,CLR,,0.00,WeatherDisplay:10.37,2013-08-29 18:04:00,
2013-08-29 14:05:00,93.2,40.3,26.69,ENE,72,0.0,0.0,16,0.00,CLR,,0.00,WeatherDisplay:10.37,2013-08-29 18:05:00,
2013-08-29 14:07:00,93.4,40.5,26.69,East,96,0.0,0.0,16,0.00,CLR,,0.00,WeatherDisplay:10.37,2013-08-29 18:07:00,
2013-08-29 14:09:00,91.9,40.9,26.69,East,96,0.0,0.0,17,0.00,CLR,,0.00,WeatherDisplay:10.37,2013-08-29 18:09:00,
2013-08-29 14:10:00,91.0,40.2,26.69,East,96,0.0,0.0,17,0.00,CLR,,0.00,WeatherDisplay:10.37,2013-08-29 18:10:00,
2013-08-29 14:11:00,91.0,40.2,26.69,East,96,0.0,0.0,17,0.00,CLR,,0.00,WeatherDisplay:10.37,2013-08-29 18:11:00,
2013-08-29 14:13:00,89.8,39.1,26.69,East,96,0.0,0.0,17,0.00,CLR,,0.00,WeatherDisplay:10.37,2013-08-29 18:13:00,
2013-08-29 14:15:00,89.9,40.7,0.00,East,96,0.0,0.0,18,0.00,CLR,,0.00,WeatherDisplay:10.37,2013-08-29 18:15:00,
2013-08-29 14:16:00,90.9,41.5,26.69,East,96,0.0,0.0,18,0.00,CLR,,0.00,WeatherDisplay:10.37,2013-08-29 18:16:00,
2013-08-29 14:17:00,91.8,40.7,26.69,SE,124,0.0,0.0,17,0.00,CLR,,0.00,WeatherDisplay:10.37,2013-08-29 18:17:00,
2013-08-29 14:19:00,92.1,41.0,26.69,SSE,157,0.0,0.0,17,0.00,CLR,,0.00,WeatherDisplay:10.37,2013-08-29 18:19:00,
2013-08-29 14:20:00,92.0,40.9,0.00,ESE,116,0.0,0.0,17,0.00,CLR,,0.00,WeatherDisplay:10.37,2013-08-29 18:20:00,
2013-08-29 14:22:00,91.0,40.2,26.69,SSE,157,0.0,0.0,17,0.00,CLR,,0.00,WeatherDisplay:10.37,2013-08-29 18:22:00,
2013-08-29 14:23:00,90.1,39.4,26.69,SSE,157,0.0,0.0,17,0.00,CLR,,0.00,WeatherDisplay:10.37,2013-08-29 18:23:00,
2013-08-29 14:24:00,89.8,39.1,26.69,SSE,157,0.0,0.0,17,0.00,CLR,,0.00,WeatherDisplay:10.37,2013-08-29 18:24:00,
2013-08-29 14:25:00,89.2,40.2,26.69,SSE,157,0.0,0.0,18,0.00,CLR,,0.00,WeatherDisplay:10.37,2013-08-29 18:25:00,
2013-08-29 14:28:00,91.2,41.8,26.69,ESE,117,0.0,0.0,18,0.00,CLR,,0.00,WeatherDisplay:10.37,2013-08-29 18:28:00,
2013-08-29 14:29:00,91.9,40.9,26.69,SE,125,0.0,0.0,17,0.00,CLR,,0.00,WeatherDisplay:10.37,2013-08-29 18:29:00,
2013-08-29 14:30:00,91.8,40.7,0.00,SE,141,0.0,0.0,17,0.00,CLR,,0.00,WeatherDisplay:10.37,2013-08-29 18:30:00,
2013-08-29 14:31:00,95.0,41.8,26.69,SE,125,0.0,0.0,16,0.00,CLR,,0.00,WeatherDisplay:10.37,2013-08-29 18:31:00,
2013-08-29 14:32:00,95.7,42.3,26.69,SE,125,0.0,0.0,16,0.00,CLR,,0.00,WeatherDisplay:10.37,2013-08-29 18:32:00,
2013-08-29 14:33:00,97.0,38.0,26.69,ESE,115,0.0,0.0,13,0.00,CLR,,0.00,WeatherDisplay:10.37,2013-08-29 18:33:00,
2013-08-29 14:35:00,96.8,37.8,0.00,ESE,120,0.0,0.0,13,0.00,CLR,,0.00,WeatherDisplay:10.37,2013-08-29 18:35:00,
2013-08-29 14:37:00,92.8,41.6,26.69,East,101,0.0,0.0,17,0.00,CLR,,0.00,WeatherDisplay:10.37,2013-08-29 18:37:00,
2013-08-29 14:38:00,92.1,41.0,26.69,East,101,0.0,0.0,17,0.00,CLR,,0.00,WeatherDisplay:10.37,2013-08-29 18:38:00,
2013-08-29 14:39:00,90.9,40.0,26.69,East,101,0.0,0.0,17,0.00,CLR,,0.00,WeatherDisplay:10.37,2013-08-29 18:39:00,
2013-08-29 14:40:00,90.0,39.3,26.69,East,81,0.0,0.0,17,0.00,CLR,,0.00,WeatherDisplay:10.37,2013-08-29 18:40:00,
2013-08-29 14:42:00,89.1,40.0,26.69,East,81,0.0,0.0,18,0.00,CLR,,0.00,WeatherDisplay:10.37,2013-08-29 18:42:00,
2013-08-29 14:44:00,88.3,39.5,26.69,East,81,0.0,0.0,18,0.00,CLR,,0.00,WeatherDisplay:10.37,2013-08-29 18:44:00,
2013-08-29 14:45:00,88.0,39.2,26.69,East,81,0.0,0.0,18,0.00,CLR,,0.00,WeatherDisplay:10.37,2013-08-29 18:45:00,
2013-08-29 14:46:00,87.4,38.7,26.69,East,81,0.0,0.0,18,0.00,CLR,,0.00,WeatherDisplay:10.37,2013-08-29 18:46:00,
2013-08-29 14:48:00,87.1,38.4,26.69,East,81,0.0,0.0,18,0.00,CLR,,0.00,WeatherDisplay:10.37,2013-08-29 18:48:00,
2013-08-29 14:49:00,86.9,38.3,26.69,East,81,0.0,0.0,18,0.00,CLR,,0.00,WeatherDisplay:10.37,2013-08-29 18:49:00,
2013-08-29 14:51:00,87.1,39.8,26.69,East,81,0.0,0.0,19,0.00,CLR,,0.00,WeatherDisplay:10.37,2013-08-29 18:51:00,
2013-08-29 14:53:00,87.6,38.9,26.69,East,79,0.0,0.0,18,0.00,CLR,,0.00,WeatherDisplay:10.37,2013-08-29 18:53:00,
2013-08-29 14:54:00,87.6,38.9,26.69,East,79,0.0,0.0,18,0.00,CLR,,0.00,WeatherDisplay:10.37,2013-08-29 18:54:00,
2013-08-29 14:55:00,88.0,39.2,26.69,East,79,0.0,0.0,18,0.00,CLR,,0.00,WeatherDisplay:10.37,2013-08-29 18:55:00,
2013-08-29 14:57:00,88.3,39.5,26.69,East,79,0.0,0.0,18,0.00,CLR,,0.00,WeatherDisplay:10.37,2013-08-29 18:57:00,
2013-08-29 14:58:00,88.3,39.5,26.69,East,81,0.0,0.0,18,0.00,CLR,,0.00,WeatherDisplay:10.37,2013-08-29 18:58:00,
2013-08-29 15:00:00,88.3,39.5,26.69,East,81,0.0,0.0,18,0.00,CLR,,0.00,WeatherDisplay:10.37,2013-08-29 19:00:00,
2013-08-29 15:01:00,88.3,39.5,26.69,East,82,0.0,0.0,18,0.00,CLR,,0.00,WeatherDisplay:10.37,2013-08-29 19:01:00,
2013-08-29 15:02:00,88.2,39.3,26.69,East,82,0.0,0.0,18,0.00,CLR,,0.00,WeatherDisplay:10.37,2013-08-29 19:02:00,
2013-08-29 15:04:00,88.3,39.5,26.69,East,82,0.0,0.0,18,0.00,CLR,,0.00,WeatherDisplay:10.37,2013-08-29 19:04:00,
2013-08-29 15:06:00,88.5,39.6,26.69,East,82,0.0,0.0,18,0.00,CLR,,0.00,WeatherDisplay:10.37,2013-08-29 19:06:00,
2013-08-29 15:07:00,88.5,39.6,26.69,East,82,0.0,0.0,18,0.00,CLR,,0.00,WeatherDisplay:10.37,2013-08-29 19:07:00,
2013-08-29 15:08:00,88.5,39.6,26.69,East,82,0.0,0.0,18,0.00,CLR,,0.00,WeatherDisplay:10.37,2013-08-29 19:08:00,
2013-08-29 15:10:00,89.1,40.0,26.69,East,82,0.0,0.0,18,0.00,CLR,,0.00,WeatherDisplay:10.37,2013-08-29 19:10:00,
2013-08-29 15:11:00,90.5,39.7,26.69,ESE,117,0.0,0.0,17,0.00,CLR,,0.00,WeatherDisplay:10.37,2013-08-29 19:11:00,
2013-08-29 15:13:00,91.2,40.3,26.69,ESE,117,0.0,0.0,17,0.00,CLR,,0.00,WeatherDisplay:10.37,2013-08-29 19:13:00,
2013-08-29 15:15:00,93.2,40.3,26.69,East,89,0.0,0.0,16,0.00,CLR,,0.00,WeatherDisplay:10.37,2013-08-29 19:15:00,
2013-08-29 15:17:00,93.4,40.5,26.69,East,89,0.0,0.0,16,0.00,CLR,,0.00,WeatherDisplay:10.37,2013-08-29 19:17:00,
2013-08-29 15:18:00,94.1,41.1,26.69,East,89,0.0,0.0,16,0.00,CLR,,0.00,WeatherDisplay:10.37,2013-08-29 19:18:00,
2013-08-29 15:20:00,94.6,41.5,26.69,East,89,0.0,0.0,16,0.00,CLR,,0.00,WeatherDisplay:10.37,2013-08-29 19:20:00,
2013-08-29 15:22:00,95.9,42.5,26.69,East,89,0.0,0.0,16,0.00,CLR,,0.00,WeatherDisplay:10.37,2013-08-29 19:22:00,
2013-08-29 15:23:00,95.9,42.5,26.69,East,89,0.0,0.0,16,0.00,CLR,,0.00,WeatherDisplay:10.37,2013-08-29 19:23:00,
2013-08-29 15:25:00,96.1,39.2,26.69,East,89,0.0,0.0,14,0.00,CLR,,0.00,WeatherDisplay:10.37,2013-08-29 19:25:00,
2013-08-29 15:26:00,95.7,42.3,26.69,East,89,0.0,0.0,16,0.00,CLR,,0.00,WeatherDisplay:10.37,2013-08-29 19:26:00,
2013-08-29 15:28:00,95.4,42.1,26.69,East,89,0.0,0.0,16,0.00,CLR,,0.00,WeatherDisplay:10.37,2013-08-29 19:28:00,
2013-08-29 15:29:00,94.5,37.9,26.69,East,89,0.0,0.0,14,0.00,CLR,,0.00,WeatherDisplay:10.37,2013-08-29 19:29:00,
2013-08-29 15:32:00,93.2,40.3,26.69,NNE,32,0.0,0.0,16,0.00,CLR,,0.00,WeatherDisplay:10.37,2013-08-29 19:32:00,
2013-08-29 15:33:00,93.2,40.3,26.69,NNE,32,0.0,0.0,16,0.00,CLR,,0.00,WeatherDisplay:10.37,2013-08-29 19:33:00,
2013-08-29 15:34:00,92.7,41.5,26.69,NNE,32,0.0,0.0,17,0.00,CLR,,0.00,WeatherDisplay:10.37,2013-08-29 19:34:00,
2013-08-29 15:35:00,92.6,41.4,0.00,ENE,66,0.0,0.0,17,0.00,CLR,,0.00,WeatherDisplay:10.37,2013-08-29 19:35:00,
2013-08-29 15:38:00,91.2,40.3,26.69,East,87,0.0,0.0,17,0.00,CLR,,0.00,WeatherDisplay:10.37,2013-08-29 19:38:00,
2013-08-29 15:39:00,90.7,39.9,26.69,NE,45,0.0,0.0,17,0.00,CLR,,0.00,WeatherDisplay:10.37,2013-08-29 19:39:00,
2013-08-29 15:41:00,90.1,39.4,26.69,ESE,102,3.5,0.0,17,0.00,CLR,,0.00,WeatherDisplay:10.37,2013-08-29 19:41:00,
2013-08-29 15:43:00,89.6,39.0,26.69,NNW,343,0.0,0.0,17,0.00,CLR,,0.00,WeatherDisplay:10.37,2013-08-29 19:43:00,
2013-08-29 15:44:00,89.6,39.0,26.69,SSW,198,0.0,0.0,17,0.00,CLR,,0.00,WeatherDisplay:10.37,2013-08-29 19:44:00,
2013-08-29 15:46:00,89.4,40.3,26.69,SSW,198,0.0,0.0,18,0.00,CLR,,0.00,WeatherDisplay:10.37,2013-08-29 19:46:00,
2013-08-29 15:47:00,89.2,40.2,26.69,ENE,73,0.0,0.0,18,0.00,CLR,,0.00,WeatherDisplay:10.37,2013-08-29 19:47:00,
2013-08-29 15:49:00,89.1,40.0,26.69,ENE,73,0.0,0.0,18,0.00,CLR,,0.00,WeatherDisplay:10.37,2013-08-29 19:49:00,
2013-08-29 15:50:00,89.1,40.0,26.69,ENE,73,0.0,0.0,18,0.00,CLR,,0.00,WeatherDisplay:10.37,2013-08-29 19:50:00,
2013-08-29 15:52:00,89.4,40.3,26.69,East,95,0.0,0.0,18,0.00,CLR,,0.00,WeatherDisplay:10.37,2013-08-29 19:52:00,
2013-08-29 15:54:00,89.6,39.0,26.69,East,96,0.0,0.0,17,0.00,CLR,,0.00,WeatherDisplay:10.37,2013-08-29 19:54:00,
2013-08-29 15:55:00,89.6,39.0,0.00,East,97,0.0,0.0,17,0.00,CLR,,0.00,WeatherDisplay:10.37,2013-08-29 19:55:00,
2013-08-29 15:56:00,89.6,39.0,26.69,East,96,0.0,0.0,17,0.00,CLR,,0.00,WeatherDisplay:10.37,2013-08-29 19:56:00,
2013-08-29 16:00:00,89.8,39.1,26.69,East,96,0.0,0.0,17,0.00,CLR,,0.00,WeatherDisplay:10.37,2013-08-29 20:00:00,
2013-08-29 16:01:00,89.8,39.1,26.69,ESE,118,0.0,0.0,17,0.00,CLR,,0.00,WeatherDisplay:10.37,2013-08-29 20:01:00,
2013-08-29 16:04:00,89.6,39.0,26.69,NE,36,0.0,0.0,17,0.00,CLR,,0.00,WeatherDisplay:10.37,2013-08-29 20:04:00,
2013-08-29 16:05:00,89.8,39.1,26.69,NE,36,0.0,0.0,17,0.00,CLR,,0.00,WeatherDisplay:10.37,2013-08-29 20:05:00,
2013-08-29 16:06:00,89.8,39.1,26.69,NE,36,0.0,0.0,17,0.00,CLR,,0.00,WeatherDisplay:10.37,2013-08-29 20:06:00,
2013-08-29 16:08:00,89.8,39.1,26.69,East,83,0.0,0.0,17,0.00,CLR,,0.00,WeatherDisplay:10.37,2013-08-29 20:08:00,
2013-08-29 16:09:00,89.8,39.1,26.69,East,100,0.0,0.0,17,0.00,CLR,,0.00,WeatherDisplay:10.37,2013-08-29 20:09:00,
2013-08-29 16:11:00,89.6,39.0,26.69,ESE,108,0.0,0.0,17,0.00,CLR,,0.00,WeatherDisplay:10.37,2013-08-29 20:11:00,
2013-08-29 16:12:00,89.6,39.0,26.69,ESE,108,0.0,0.0,17,0.00,CLR,,0.00,WeatherDisplay:10.37,2013-08-29 20:12:00,
2013-08-29 16:13:00,90.0,39.3,26.69,NE,56,0.0,0.0,17,0.00,CLR,,0.00,WeatherDisplay:10.37,2013-08-29 20:13:00,
2013-08-29 16:15:00,90.0,39.3,26.69,East,99,0.0,0.0,17,0.00,CLR,,0.00,WeatherDisplay:10.37,2013-08-29 20:15:00,
2013-08-29 16:17:00,89.8,39.1,26.69,East,99,0.0,0.0,17,0.00,CLR,,0.00,WeatherDisplay:10.37,2013-08-29 20:17:00,
2013-08-29 16:18:00,89.6,39.0,26.69,East,99,0.0,0.0,17,0.00,CLR,,0.00,WeatherDisplay:10.37,2013-08-29 20:18:00,
2013-08-29 16:19:00,89.6,39.0,26.69,East,99,0.0,0.0,17,0.00,CLR,,0.00,WeatherDisplay:10.37,2013-08-29 20:19:00,
2013-08-29 16:22:00,89.2,40.2,26.69,East,99,0.0,0.0,18,0.00,CLR,,0.00,WeatherDisplay:10.37,2013-08-29 20:22:00,
2013-08-29 16:23:00,89.2,40.2,26.69,East,99,0.0,0.0,18,0.00,CLR,,0.00,WeatherDisplay:10.37,2013-08-29 20:23:00,
2013-08-29 16:24:00,89.2,40.2,26.69,SE,124,0.0,0.0,18,0.00,CLR,,0.00,WeatherDisplay:10.37,2013-08-29 20:24:00,
2013-08-29 16:25:00,89.4,40.3,26.69,SE,124,0.0,0.0,18,0.00,CLR,,0.00,WeatherDisplay:10.37,2013-08-29 20:25:00,
2013-08-29 16:27:00,89.6,39.0,26.69,SE,124,0.0,0.0,17,0.00,CLR,,0.00,WeatherDisplay:10.37,2013-08-29 20:27:00,
2013-08-29 16:28:00,89.6,39.0,26.69,ESE,122,0.0,0.0,17,0.00,CLR,,0.00,WeatherDisplay:10.37,2013-08-29 20:28:00,
2013-08-29 16:30:00,89.4,40.3,0.00,ESE,116,0.0,0.0,18,0.00,CLR,,0.00,WeatherDisplay:10.37,2013-08-29 20:30:00,
2013-08-29 16:32:00,89.2,40.2,26.69,ESE,122,0.0,0.0,18,0.00,CLR,,0.00,WeatherDisplay:10.37,2013-08-29 20:32:00,
2013-08-29 16:34:00,88.9,39.9,26.69,ESE,122,0.0,0.0,18,0.00,CLR,,0.00,WeatherDisplay:10.37,2013-08-29 20:34:00,
2013-08-29 16:35:00,88.8,39.8,0.00,ESE,122,0.0,0.0,18,0.00,CLR,,0.00,WeatherDisplay:10.37,2013-08-29 20:35:00,
2013-08-29 16:37:00,88.7,39.7,26.69,East,79,0.0,0.0,18,0.00,CLR,,0.00,WeatherDisplay:10.37,2013-08-29 20:37:00,
2013-08-29 16:39:00,88.9,39.9,26.69,East,79,0.0,0.0,18,0.00,CLR,,0.00,WeatherDisplay:10.37,2013-08-29 20:39:00,
2013-08-29 16:40:00,88.9,39.9,26.69,East,79,0.0,0.0,18,0.00,CLR,,0.00,WeatherDisplay:10.37,2013-08-29 20:40:00,
2013-08-29 16:41:00,89.2,40.2,26.69,East,79,0.0,0.0,18,0.00,CLR,,0.00,WeatherDisplay:10.37,2013-08-29 20:41:00,
2013-08-29 16:42:00,89.4,40.3,26.69,East,79,0.0,0.0,18,0.00,CLR,,0.00,WeatherDisplay:10.37,2013-08-29 20:42:00,
2013-08-29 16:43:00,89.6,39.0,26.69,East,79,0.0,0.0,17,0.00,CLR,,0.00,WeatherDisplay:10.37,2013-08-29 20:43:00,
2013-08-29 16:44:00,89.6,39.0,26.69,East,79,0.0,0.0,17,0.00,CLR,,0.00,WeatherDisplay:10.37,2013-08-29 20:44:00,
2013-08-29 16:45:00,89.6,39.0,0.00,East,79,0.0,0.0,17,0.00,CLR,,0.00,WeatherDisplay:10.37,2013-08-29 20:45:00,
2013-08-29 16:48:00,89.6,39.0,26.69,East,101,0.0,0.0,17,0.00,CLR,,0.00,WeatherDisplay:10.37,2013-08-29 20:48:00,
2013-08-29 16:49:00,89.4,40.3,26.69,ENE,74,0.0,0.0,18,0.00,CLR,,0.00,WeatherDisplay:10.37,2013-08-29 20:49:00,
2013-08-29 16:51:00,89.4,40.3,26.69,ENE,74,0.0,0.0,18,0.00,CLR,,0.00,WeatherDisplay:10.37,2013-08-29 20:51:00,
2013-08-29 16:52:00,89.6,39.0,26.69,ENE,74,0.0,0.0,17,0.00,CLR,,0.00,WeatherDisplay:10.37,2013-08-29 20:52:00,
2013-08-29 16:54:00,89.6,39.0,26.69,ENE,74,0.0,0.0,17,0.00,CLR,,0.00,WeatherDisplay:10.37,2013-08-29 20:54:00,
2013-08-29 16:55:00,89.6,39.0,26.69,ENE,74,0.0,0.0,17,0.00,CLR,,0.00,WeatherDisplay:10.37,2013-08-29 20:55:00,
2013-08-29 16:56:00,89.6,39.0,26.69,WSW,246,0.0,0.0,17,0.00,CLR,,0.00,WeatherDisplay:10.37,2013-08-29 20:56:00,
2013-08-29 16:57:00,89.6,39.0,26.69,WSW,246,0.0,0.0,17,0.00,CLR,,0.00,WeatherDisplay:10.37,2013-08-29 20:57:00,
2013-08-29 16:59:00,89.4,40.3,26.69,SE,145,0.0,0.0,18,0.00,CLR,,0.00,WeatherDisplay:10.37,2013-08-29 20:59:00,
2013-08-29 17:00:00,89.4,40.3,26.69,SE,145,0.0,0.0,18,0.00,CLR,,0.00,WeatherDisplay:10.37,2013-08-29 21:00:00,
2013-08-29 17:01:00,89.2,40.2,26.69,SE,146,0.0,0.0,18,0.00,CLR,,0.00,WeatherDisplay:10.37,2013-08-29 21:01:00,
2013-08-29 17:02:00,89.2,40.2,26.69,SE,146,0.0,0.0,18,0.00,CLR,,0.00,WeatherDisplay:10.37,2013-08-29 21:02:00,
2013-08-29 17:04:00,89.1,40.0,26.69,SE,146,0.0,0.0,18,0.00,CLR,,0.00,WeatherDisplay:10.37,2013-08-29 21:04:00,
2013-08-29 17:05:00,88.9,39.9,26.69,SE,146,0.0,0.0,18,0.00,CLR,,0.00,WeatherDisplay:10.37,2013-08-29 21:05:00,
2013-08-29 17:07:00,88.9,39.9,26.69,ESE,114,0.0,0.0,18,0.00,CLR,,0.00,WeatherDisplay:10.37,2013-08-29 21:07:00,
2013-08-29 17:08:00,88.7,39.7,26.69,ESE,114,0.0,0.0,18,0.00,CLR,,0.00,WeatherDisplay:10.37,2013-08-29 21:08:00,
2013-08-29 17:09:00,88.3,39.5,26.69,ESE,114,0.0,0.0,18,0.00,CLR,,0.00,WeatherDisplay:10.37,2013-08-29 21:09:00,
2013-08-29 17:10:00,88.3,39.5,26.69,ESE,114,0.0,0.0,18,0.00,CLR,,0.00,WeatherDisplay:10.37,2013-08-29 21:10:00,
2013-08-29 17:12:00,88.7,39.7,26.69,ESE,114,0.0,0.0,18,0.00,CLR,,0.00,WeatherDisplay:10.37,2013-08-29 21:12:00,
2013-08-29 17:13:00,88.7,39.7,26.69,ESE,114,0.0,0.0,18,0.00,CLR,,0.00,WeatherDisplay:10.37,2013-08-29 21:13:00,
2013-08-29 17:14:00,88.7,39.7,26.69,ESE,114,0.0,0.0,18,0.00,CLR,,0.00,WeatherDisplay:10.37,2013-08-29 21:14:00,
2013-08-29 17:15:00,88.7,39.7,0.00,ESE,115,0.0,0.0,18,0.00,CLR,,0.00,WeatherDisplay:10.37,2013-08-29 21:15:00,
2013-08-29 17:18:00,88.5,39.6,26.69,ESE,113,0.0,0.0,18,0.00,CLR,,0.00,WeatherDisplay:10.37,2013-08-29 21:18:00,
2013-08-29 17:19:00,88.5,39.6,26.69,ESE,118,0.0,0.0,18,0.00,CLR,,0.00,WeatherDisplay:10.37,2013-08-29 21:19:00,
2013-08-29 17:20:00,88.5,39.6,26.69,ESE,118,0.0,0.0,18,0.00,CLR,,0.00,WeatherDisplay:10.37,2013-08-29 21:20:00,
2013-08-29 17:24:00,88.5,39.6,26.69,ESE,118,0.0,0.0,18,0.00,CLR,,0.00,WeatherDisplay:10.37,2013-08-29 21:24:00,
2013-08-29 17:26:00,88.7,39.7,26.69,ESE,118,0.0,0.0,18,0.00,CLR,,0.00,WeatherDisplay:10.37,2013-08-29 21:26:00,
2013-08-29 17:27:00,88.7,39.7,26.69,ESE,118,0.0,0.0,18,0.00,CLR,,0.00,WeatherDisplay:10.37,2013-08-29 21:27:00,
2013-08-29 17:28:00,88.7,39.7,26.69,ESE,118,0.0,0.0,18,0.00,CLR,,0.00,WeatherDisplay:10.37,2013-08-29 21:28:00,
2013-08-29 17:29:00,88.9,39.9,26.69,ESE,116,0.0,0.0,18,0.00,CLR,,0.00,WeatherDisplay:10.37,2013-08-29 21:29:00,
2013-08-29 17:32:00,88.5,39.6,26.69,ESE,116,0.0,0.0,18,0.00,CLR,,0.00,WeatherDisplay:10.37,2013-08-29 21:32:00,
2013-08-29 17:33:00,88.5,39.6,26.69,ESE,116,0.0,0.0,18,0.00,CLR,,0.00,WeatherDisplay:10.37,2013-08-29 21:33:00,
2013-08-29 17:35:00,88.5,39.6,26.69,ESE,102,0.0,0.0,18,0.00,CLR,,0.00,WeatherDisplay:10.37,2013-08-29 21:35:00,
2013-08-29 17:39:00,88.2,39.3,26.69,ESE,102,0.0,0.0,18,0.00,CLR,,0.00,WeatherDisplay:10.37,2013-08-29 21:39:00,
2013-08-29 17:40:00,88.2,39.3,26.69,ESE,102,0.0,0.0,18,0.00,CLR,,0.00,WeatherDisplay:10.37,2013-08-29 21:40:00,
2013-08-29 17:41:00,88.2,39.3,26.69,ESE,102,0.0,0.0,18,0.00,CLR,,0.00,WeatherDisplay:10.37,2013-08-29 21:41:00,
2013-08-29 17:42:00,88.0,39.2,26.69,ESE,102,0.0,0.0,18,0.00,CLR,,0.00,WeatherDisplay:10.37,2013-08-29 21:42:00,
2013-08-29 17:45:00,87.8,39.0,26.69,ESE,102,0.0,0.0,18,0.00,CLR,,0.00,WeatherDisplay:10.37,2013-08-29 21:45:00,
2013-08-29 17:46:00,87.6,38.9,26.69,ESE,102,0.0,0.0,18,0.00,CLR,,0.00,WeatherDisplay:10.37,2013-08-29 21:46:00,
2013-08-29 17:47:00,87.8,39.0,26.69,ESE,102,0.0,0.0,18,0.00,CLR,,0.00,WeatherDisplay:10.37,2013-08-29 21:47:00,
2013-08-29 17:48:00,87.8,39.0,26.69,ESE,102,0.0,0.0,18,0.00,CLR,,0.00,WeatherDisplay:10.37,2013-08-29 21:48:00,
2013-08-29 17:51:00,88.0,39.2,26.69,ESE,102,0.0,0.0,18,0.00,CLR,,0.00,WeatherDisplay:10.37,2013-08-29 21:51:00,
2013-08-29 17:52:00,87.8,39.0,26.69,ESE,102,0.0,0.0,18,0.00,CLR,,0.00,WeatherDisplay:10.37,2013-08-29 21:52:00,
2013-08-29 17:53:00,87.8,39.0,26.69,ESE,105,0.0,0.0,18,0.00,CLR,,0.00,WeatherDisplay:10.37,2013-08-29 21:53:00,
2013-08-29 17:54:00,87.6,38.9,26.69,ESE,105,0.0,0.0,18,0.00,CLR,,0.00,WeatherDisplay:10.37,2013-08-29 21:54:00,
2013-08-29 17:57:00,87.4,38.7,26.69,ESE,105,0.0,0.0,18,0.00,CLR,,0.00,WeatherDisplay:10.37,2013-08-29 21:57:00,
2013-08-29 17:58:00,87.3,38.6,26.69,East,99,0.0,0.0,18,0.00,CLR,,0.00,WeatherDisplay:10.37,2013-08-29 21:58:00,
2013-08-29 18:00:00,87.1,38.4,26.69,East,99,0.0,0.0,18,0.00,CLR,,0.00,WeatherDisplay:10.37,2013-08-29 22:00:00,
2013-08-29 18:03:00,87.1,38.4,26.69,East,99,0.0,0.0,18,0.00,CLR,,0.00,WeatherDisplay:10.37,2013-08-29 22:03:00,
2013-08-29 18:04:00,86.9,38.3,26.69,East,99,0.0,0.0,18,0.00,CLR,,0.00,WeatherDisplay:10.37,2013-08-29 22:04:00,
2013-08-29 18:05:00,86.9,38.3,26.69,East,99,0.0,0.0,18,0.00,CLR,,0.00,WeatherDisplay:10.37,2013-08-29 22:05:00,
2013-08-29 18:07:00,86.7,38.1,26.69,East,99,0.0,0.0,18,0.00,CLR,,0.00,WeatherDisplay:10.37,2013-08-29 22:07:00,
2013-08-29 18:09:00,86.7,38.1,26.69,East,99,0.0,0.0,18,0.00,CLR,,0.00,WeatherDisplay:10.37,2013-08-29 22:09:00,
2013-08-29 18:10:00,86.7,38.1,26.69,East,99,0.0,0.0,18,0.00,CLR,,0.00,WeatherDisplay:10.37,2013-08-29 22:10:00,
2013-08-29 18:11:00,86.7,38.1,26.69,East,99,0.0,0.0,18,0.00,CLR,,0.00,WeatherDisplay:10.37,2013-08-29 22:11:00,
2013-08-29 18:12:00,86.5,38.0,26.69,ENE,62,0.0,0.0,18,0.00,CLR,,0.00,WeatherDisplay:10.37,2013-08-29 22:12:00,
2013-08-29 18:14:00,86.5,38.0,26.69,ENE,62,0.0,0.0,18,0.00,CLR,,0.00,WeatherDisplay:10.37,2013-08-29 22:14:00,
2013-08-29 18:16:00,86.4,37.8,26.69,ENE,62,0.0,0.0,18,0.00,CLR,,0.00,WeatherDisplay:10.37,2013-08-29 22:16:00,
2013-08-29 18:17:00,86.4,37.8,26.69,ENE,62,0.0,0.0,18,0.00,CLR,,0.00,WeatherDisplay:10.37,2013-08-29 22:17:00,
2013-08-29 18:18:00,86.2,37.7,26.69,ENE,62,0.0,0.0,18,0.00,CLR,,0.00,WeatherDisplay:10.37,2013-08-29 22:18:00,
2013-08-29 18:19:00,86.2,37.7,26.69,ENE,62,0.0,0.0,18,0.00,CLR,,0.00,WeatherDisplay:10.37,2013-08-29 22:19:00,
2013-08-29 18:22:00,86.0,37.5,26.69,ENE,62,0.0,0.0,18,0.00,CLR,,0.00,WeatherDisplay:10.37,2013-08-29 22:22:00,
2013-08-29 18:23:00,86.0,37.5,26.69,ENE,62,0.0,0.0,18,0.00,CLR,,0.00,WeatherDisplay:10.37,2013-08-29 22:23:00,
2013-08-29 18:25:00,85.9,37.5,0.00,ENE,62,0.0,0.0,18,0.00,CLR,,0.00,WeatherDisplay:10.37,2013-08-29 22:25:00,
2013-08-29 18:26:00,85.8,37.4,26.69,ENE,62,0.0,0.0,18,0.00,CLR,,0.00,WeatherDisplay:10.37,2013-08-29 22:26:00,
2013-08-29 18:28:00,85.6,37.3,26.69,ENE,62,0.0,0.0,18,0.00,CLR,,0.00,WeatherDisplay:10.37,2013-08-29 22:28:00,
2013-08-29 18:30:00,85.6,37.3,0.00,ENE,62,0.0,0.0,18,0.00,CLR,,0.00,WeatherDisplay:10.37,2013-08-29 22:30:00,
2013-08-29 18:31:00,85.6,37.3,26.69,ENE,62,0.0,0.0,18,0.00,CLR,,0.00,WeatherDisplay:10.37,2013-08-29 22:31:00,
2013-08-29 18:33:00,85.6,37.3,26.69,ENE,62,0.0,0.0,18,0.00,CLR,,0.00,WeatherDisplay:10.37,2013-08-29 22:33:00,
2013-08-29 18:34:00,85.5,38.5,26.69,ENE,62,0.0,0.0,19,0.00,CLR,,0.00,WeatherDisplay:10.37,2013-08-29 22:34:00,
2013-08-29 18:35:00,85.5,38.5,26.69,ENE,62,0.0,0.0,19,0.00,CLR,,0.00,WeatherDisplay:10.37,2013-08-29 22:35:00,
2013-08-29 18:36:00,85.5,38.5,26.69,ENE,62,0.0,0.0,19,0.00,CLR,,0.00,WeatherDisplay:10.37,2013-08-29 22:36:00,
2013-08-29 18:39:00,85.3,38.3,26.69,ENE,62,0.0,0.0,19,0.00,CLR,,0.00,WeatherDisplay:10.37,2013-08-29 22:39:00,
2013-08-29 18:40:00,85.1,38.2,26.69,ENE,62,0.0,0.0,19,0.00,CLR,,0.00,WeatherDisplay:10.37,2013-08-29 22:40:00,
2013-08-29 18:41:00,85.1,38.2,26.69,ENE,62,0.0,0.0,19,0.00,CLR,,0.00,WeatherDisplay:10.37,2013-08-29 22:41:00,
2013-08-29 18:42:00,85.1,38.2,26.69,ENE,62,0.0,0.0,19,0.00,CLR,,0.00,WeatherDisplay:10.37,2013-08-29 22:42:00,
2013-08-29 18:43:00,84.9,38.0,26.69,ENE,62,0.0,0.0,19,0.00,CLR,,0.00,WeatherDisplay:10.37,2013-08-29 22:43:00,
2013-08-29 18:45:00,84.9,38.0,0.00,ENE,62,0.0,0.0,19,0.00,CLR,,0.00,WeatherDisplay:10.37,2013-08-29 22:45:00,
2013-08-29 18:47:00,84.7,37.9,26.69,ENE,62,0.0,0.0,19,0.00,CLR,,0.00,WeatherDisplay:10.37,2013-08-29 22:47:00,
2013-08-29 18:49:00,84.6,37.8,26.69,ENE,62,0.0,0.0,19,0.00,CLR,,0.00,WeatherDisplay:10.37,2013-08-29 22:49:00,
2013-08-29 18:50:00,84.6,37.8,0.00,ENE,62,0.0,0.0,19,0.00,CLR,,0.00,WeatherDisplay:10.37,2013-08-29 22:50:00,
2013-08-29 18:53:00,84.4,37.6,26.69,ENE,62,0.0,0.0,19,0.00,CLR,,0.00,WeatherDisplay:10.37,2013-08-29 22:53:00,
2013-08-29 18:54:00,84.4,37.6,26.69,ENE,62,0.0,0.0,19,0.00,CLR,,0.00,WeatherDisplay:10.37,2013-08-29 22:54:00,
2013-08-29 18:55:00,84.4,37.6,0.00,ENE,62,0.0,0.0,19,0.00,CLR,,0.00,WeatherDisplay:10.37,2013-08-29 22:55:00,
2013-08-29 18:57:00,84.4,37.6,26.69,ENE,62,0.0,0.0,19,0.00,CLR,,0.00,WeatherDisplay:10.37,2013-08-29 22:57:00,
2013-08-29 18:58:00,84.4,37.6,26.69,ENE,62,0.0,0.0,19,0.00,CLR,,0.00,WeatherDisplay:10.37,2013-08-29 22:58:00,
2013-08-29 19:00:00,84.4,37.6,0.00,ENE,62,0.0,0.0,19,0.00,CLR,,0.00,WeatherDisplay:10.37,2013-08-29 23:00:00,
2013-08-29 19:02:00,84.2,37.5,26.69,ENE,62,0.0,0.0,19,0.00,CLR,,0.00,WeatherDisplay:10.37,2013-08-29 23:02:00,
2013-08-29 19:04:00,84.0,37.3,26.69,ENE,62,0.0,0.0,19,0.00,CLR,,0.00,WeatherDisplay:10.37,2013-08-29 23:04:00,
2013-08-29 19:05:00,84.0,37.3,0.00,ENE,62,0.0,0.0,19,0.00,CLR,,0.00,WeatherDisplay:10.37,2013-08-29 23:05:00,
2013-08-29 19:07:00,83.8,37.2,26.69,ENE,62,0.0,0.0,19,0.00,CLR,,0.00,WeatherDisplay:10.37,2013-08-29 23:07:00,
2013-08-29 19:08:00,83.7,37.0,26.69,ENE,62,0.0,0.0,19,0.00,CLR,,0.00,WeatherDisplay:10.37,2013-08-29 23:08:00,
2013-08-29 19:10:00,83.5,36.9,26.69,ENE,62,0.0,0.0,19,0.00,CLR,,0.00,WeatherDisplay:10.37,2013-08-29 23:10:00,
2013-08-29 19:12:00,83.5,36.9,26.69,ENE,62,0.0,0.0,19,0.00,CLR,,0.00,WeatherDisplay:10.37,2013-08-29 23:12:00,
2013-08-29 19:13:00,83.3,36.7,26.69,ENE,62,0.0,0.0,19,0.00,CLR,,0.00,WeatherDisplay:10.37,2013-08-29 23:13:00,
2013-08-29 19:14:00,83.3,36.7,26.69,ENE,62,0.0,0.0,19,0.00,CLR,,0.00,WeatherDisplay:10.37,2013-08-29 23:14:00,
2013-08-29 19:16:00,83.1,36.6,26.69,ENE,62,0.0,0.0,19,0.00,CLR,,0.00,WeatherDisplay:10.37,2013-08-29 23:16:00,
2013-08-29 19:19:00,82.9,36.4,26.69,ENE,62,0.0,0.0,19,0.00,CLR,,0.00,WeatherDisplay:10.37,2013-08-29 23:19:00,
2013-08-29 19:20:00,82.9,36.4,0.00,ENE,62,0.0,0.0,19,0.00,CLR,,0.00,WeatherDisplay:10.37,2013-08-29 23:20:00,
2013-08-29 19:22:00,82.9,36.4,26.69,ENE,62,0.0,0.0,19,0.00,CLR,,0.00,WeatherDisplay:10.37,2013-08-29 23:22:00,
2013-08-29 19:25:00,82.8,36.3,26.69,ENE,62,0.0,0.0,19,0.00,CLR,,0.00,WeatherDisplay:10.37,2013-08-29 23:25:00,
2013-08-29 19:26:00,82.8,37.6,26.69,ENE,62,0.0,0.0,20,0.00,CLR,,0.00,WeatherDisplay:10.37,2013-08-29 23:26:00,
2013-08-29 19:27:00,82.8,37.6,26.69,ENE,62,0.0,0.0,20,0.00,CLR,,0.00,WeatherDisplay:10.37,2013-08-29 23:27:00,
2013-08-29 19:28:00,82.6,37.4,26.69,ENE,62,0.0,0.0,20,0.00,CLR,,0.00,WeatherDisplay:10.37,2013-08-29 23:28:00,
2013-08-29 19:29:00,82.6,37.4,26.69,ENE,62,0.0,0.0,20,0.00,CLR,,0.00,WeatherDisplay:10.37,2013-08-29 23:29:00,
2013-08-29 19:30:00,82.6,37.4,26.69,ENE,62,0.0,0.0,20,0.00,CLR,,0.00,WeatherDisplay:10.37,2013-08-29 23:30:00,
2013-08-29 19:33:00,82.4,37.3,26.69,ENE,62,0.0,0.0,20,0.00,CLR,,0.00,WeatherDisplay:10.37,2013-08-29 23:33:00,
2013-08-29 19:34:00,82.4,37.3,26.69,ENE,62,0.0,0.0,20,0.00,CLR,,0.00,WeatherDisplay:10.37,2013-08-29 23:34:00,
2013-08-29 19:35:00,82.4,37.3,0.00,ENE,62,0.0,0.0,20,0.00,CLR,,0.00,WeatherDisplay:10.37,2013-08-29 23:35:00,
2013-08-29 19:39:00,82.2,37.1,26.69,ENE,62,0.0,0.0,20,0.00,CLR,,0.00,WeatherDisplay:10.37,2013-08-29 23:39:00,
2013-08-29 19:40:00,82.2,37.1,0.00,ENE,62,0.0,0.0,20,0.00,CLR,,0.00,WeatherDisplay:10.37,2013-08-29 23:40:00,
2013-08-29 19:41:00,82.2,37.1,26.69,ENE,62,0.0,0.0,20,0.00,CLR,,0.00,WeatherDisplay:10.37,2013-08-29 23:41:00,
2013-08-29 19:43:00,82.2,37.1,26.69,ENE,62,0.0,0.0,20,0.00,CLR,,0.00,WeatherDisplay:10.37,2013-08-29 23:43:00,
2013-08-29 19:44:00,82.0,37.0,26.69,ENE,62,0.0,0.0,20,0.00,CLR,,0.00,WeatherDisplay:10.37,2013-08-29 23:44:00,
2013-08-29 19:45:00,82.0,37.0,0.00,ENE,62,0.0,0.0,20,0.00,CLR,,0.00,WeatherDisplay:10.37,2013-08-29 23:45:00,
2013-08-29 19:48:00,81.7,36.7,26.69,ENE,62,0.0,0.0,20,0.00,CLR,,0.00,WeatherDisplay:10.37,2013-08-29 23:48:00,
2013-08-29 19:50:00,81.7,36.7,26.69,ENE,62,0.0,0.0,20,0.00,CLR,,0.00,WeatherDisplay:10.37,2013-08-29 23:50:00,
2013-08-29 19:51:00,81.7,36.7,26.69,ENE,62,0.0,0.0,20,0.00,CLR,,0.00,WeatherDisplay:10.37,2013-08-29 23:51:00,
2013-08-29 19:52:00,81.5,36.5,26.69,ENE,62,0.0,0.0,20,0.00,CLR,,0.00,WeatherDisplay:10.37,2013-08-29 23:52:00,
2013-08-29 19:53:00,81.5,36.5,26.69,ENE,62,0.0,0.0,20,0.00,CLR,,0.00,WeatherDisplay:10.37,2013-08-29 23:53:00,
2013-08-29 19:56:00,81.3,36.4,26.69,ENE,62,0.0,0.0,20,0.00,CLR,,0.00,WeatherDisplay:10.37,2013-08-29 23:56:00,
2013-08-29 19:57:00,81.1,36.2,26.69,ENE,62,0.0,0.0,20,0.00,CLR,,0.00,WeatherDisplay:10.37,2013-08-29 23:57:00,
2013-08-29 19:58:00,81.1,37.5,26.69,ENE,62,0.0,0.0,21,0.00,CLR,,0.00,WeatherDisplay:10.37,2013-08-29 23:58:00,
2013-08-29 20:00:00,81.0,37.3,0.00,ENE,62,0.0,0.0,21,0.00,CLR,,0.00,WeatherDisplay:10.37,2013-08-30 00:00:00,
2013-08-29 20:03:00,80.6,35.8,26.69,ENE,62,0.0,0.0,20,0.00,CLR,,0.00,WeatherDisplay:10.37,2013-08-30 00:03:00,
2013-08-29 20:04:00,80.6,35.8,26.69,ENE,62,0.0,0.0,20,0.00,CLR,,0.00,WeatherDisplay:10.37,2013-08-30 00:04:00,
2013-08-29 20:05:00,80.6,35.8,26.69,ENE,62,0.0,0.0,20,0.00,CLR,,0.00,WeatherDisplay:10.37,2013-08-30 00:05:00,
2013-08-29 20:08:00,80.6,35.8,26.69,ENE,62,0.0,0.0,20,0.00,CLR,,0.00,WeatherDisplay:10.37,2013-08-30 00:08:00,
2013-08-29 20:09:00,80.6,35.8,26.69,ENE,62,0.0,0.0,20,0.00,CLR,,0.00,WeatherDisplay:10.37,2013-08-30 00:09:00,
2013-08-29 20:10:00,80.6,35.8,0.00,ENE,62,0.0,0.0,20,0.00,CLR,,0.00,WeatherDisplay:10.37,2013-08-30 00:10:00,
2013-08-29 20:11:00,80.6,35.8,26.69,ENE,62,0.0,0.0,20,0.00,CLR,,0.00,WeatherDisplay:10.37,2013-08-30 00:11:00,
2013-08-29 20:12:00,80.6,37.0,26.69,ENE,62,0.0,0.0,21,0.00,CLR,,0.00,WeatherDisplay:10.37,2013-08-30 00:12:00,
2013-08-29 20:13:00,80.6,37.0,26.69,ENE,62,0.0,0.0,21,0.00,CLR,,0.00,WeatherDisplay:10.37,2013-08-30 00:13:00,
2013-08-29 20:16:00,80.4,36.9,26.69,ENE,62,0.0,0.0,21,0.00,CLR,,0.00,WeatherDisplay:10.37,2013-08-30 00:16:00,
2013-08-29 20:17:00,80.4,36.9,26.69,ENE,62,0.0,0.0,21,0.00,CLR,,0.00,WeatherDisplay:10.37,2013-08-30 00:17:00,
2013-08-29 20:19:00,80.1,36.6,26.69,ENE,62,0.0,0.0,21,0.00,CLR,,0.00,WeatherDisplay:10.37,2013-08-30 00:19:00,
2013-08-29 20:21:00,79.9,36.4,26.69,ENE,62,0.0,0.0,21,0.00,CLR,,0.00,WeatherDisplay:10.37,2013-08-30 00:21:00,
2013-08-29 20:24:00,79.7,36.3,26.69,ENE,62,0.0,0.0,21,0.00,CLR,,0.00,WeatherDisplay:10.37,2013-08-30 00:24:00,
2013-08-29 20:25:00,79.7,36.3,26.69,ENE,62,0.0,0.0,21,0.00,CLR,,0.00,WeatherDisplay:10.37,2013-08-30 00:25:00,
2013-08-29 20:27:00,79.5,36.1,26.69,ENE,62,0.0,0.0,21,0.00,CLR,,0.00,WeatherDisplay:10.37,2013-08-30 00:27:00,
2013-08-29 21:03:00,77.4,36.6,26.69,ENE,62,0.0,0.0,23,0.00,CLR,,0.00,WeatherDisplay:10.37,2013-08-30 01:03:00,
2013-08-29 21:04:00,77.4,36.6,26.69,ENE,62,0.0,0.0,23,0.00,CLR,,0.00,WeatherDisplay:10.37,2013-08-30 01:04:00,
2013-08-29 21:05:00,77.4,36.6,0.00,ENE,62,0.0,0.0,23,0.00,CLR,,0.00,WeatherDisplay:10.37,2013-08-30 01:05:00,
2013-08-29 21:07:00,77.2,36.5,26.69,ENE,62,0.0,0.0,23,0.00,CLR,,0.00,WeatherDisplay:10.37,2013-08-30 01:07:00,
2013-08-29 21:09:00,77.2,37.6,26.69,ENE,62,0.0,0.0,24,0.00,CLR,,0.00,WeatherDisplay:10.37,2013-08-30 01:09:00,
2013-08-29 21:10:00,77.2,37.6,0.00,ENE,62,0.0,0.0,24,0.00,CLR,,0.00,WeatherDisplay:10.37,2013-08-30 01:10:00,
2013-08-29 21:12:00,77.0,37.4,26.69,ENE,62,0.0,0.0,24,0.00,CLR,,0.00,WeatherDisplay:10.37,2013-08-30 01:12:00,
2013-08-29 21:15:00,77.0,37.4,26.69,ENE,62,0.0,0.0,24,0.00,CLR,,0.00,WeatherDisplay:10.37,2013-08-30 01:15:00,
2013-08-29 21:17:00,76.8,37.3,26.69,ENE,62,0.0,0.0,24,0.00,CLR,,0.00,WeatherDisplay:10.37,2013-08-30 01:17:00,
2013-08-29 21:19:00,76.8,38.3,26.69,ENE,62,0.0,0.0,25,0.00,CLR,,0.00,WeatherDisplay:10.37,2013-08-30 01:19:00,
2013-08-29 21:20:00,76.6,38.2,26.69,ENE,62,0.0,0.0,25,0.00,CLR,,0.00,WeatherDisplay:10.37,2013-08-30 01:20:00,
2013-08-29 21:22:00,76.6,38.2,26.69,ENE,62,0.0,0.0,25,0.00,CLR,,0.00,WeatherDisplay:10.37,2013-08-30 01:22:00,
2013-08-29 21:25:00,76.5,38.0,0.00,ENE,62,0.0,0.0,25,0.00,CLR,,0.00,WeatherDisplay:10.37,2013-08-30 01:25:00,
2013-08-29 21:27:00,76.3,37.9,26.69,ENE,62,0.0,0.0,25,0.00,CLR,,0.00,WeatherDisplay:10.37,2013-08-30 01:27:00,
2013-08-29 21:28:00,76.3,38.9,26.69,ENE,62,0.0,0.0,26,0.00,CLR,,0.00,WeatherDisplay:10.37,2013-08-30 01:28:00,
2013-08-29 21:31:00,76.1,38.7,26.69,ENE,62,0.0,0.0,26,0.00,CLR,,0.00,WeatherDisplay:10.37,2013-08-30 01:31:00,
2013-08-29 21:32:00,75.9,38.6,26.69,ENE,62,0.0,0.0,26,0.00,CLR,,0.00,WeatherDisplay:10.37,2013-08-30 01:32:00,
2013-08-29 21:33:00,75.9,38.6,26.69,ENE,62,0.0,0.0,26,0.00,CLR,,0.00,WeatherDisplay:10.37,2013-08-30 01:33:00,
2013-08-29 21:34:00,75.9,38.6,26.69,ENE,62,0.0,0.0,26,0.00,CLR,,0.00,WeatherDisplay:10.37,2013-08-30 01:34:00,
2013-08-29 21:37:00,75.7,38.4,26.69,ENE,62,0.0,0.0,26,0.00,CLR,,0.00,WeatherDisplay:10.37,2013-08-30 01:37:00,
2013-08-29 21:38:00,75.7,38.4,26.69,ENE,62,0.0,0.0,26,0.00,CLR,,0.00,WeatherDisplay:10.37,2013-08-30 01:38:00,
2013-08-29 21:39:00,75.7,38.4,26.69,ENE,62,0.0,0.0,26,0.00,CLR,,0.00,WeatherDisplay:10.37,2013-08-30 01:39:00,
2013-08-29 21:40:00,75.7,38.4,0.00,ENE,62,0.0,0.0,26,0.00,CLR,,0.00,WeatherDisplay:10.37,2013-08-30 01:40:00,
2013-08-29 21:43:00,75.7,38.4,26.69,ENE,62,0.0,0.0,26,0.00,CLR,,0.00,WeatherDisplay:10.37,2013-08-30 01:43:00,
2013-08-29 21:44:00,75.7,39.4,26.69,ENE,62,0.0,0.0,27,0.00,CLR,,0.00,WeatherDisplay:10.37,2013-08-30 01:44:00,
2013-08-29 21:45:00,75.7,39.4,26.69,ENE,62,0.0,0.0,27,0.00,CLR,,0.00,WeatherDisplay:10.37,2013-08-30 01:45:00,
2013-08-29 21:47:00,75.6,39.2,26.69,ENE,62,0.0,0.0,27,0.00,CLR,,0.00,WeatherDisplay:10.37,2013-08-30 01:47:00,
2013-08-29 21:48:00,75.6,39.2,26.69,ENE,62,0.0,0.0,27,0.00,CLR,,0.00,WeatherDisplay:10.37,2013-08-30 01:48:00,
2013-08-29 21:50:00,75.4,39.1,0.00,ENE,62,0.0,0.0,27,0.00,CLR,,0.00,WeatherDisplay:10.37,2013-08-30 01:50:00,
2013-08-29 21:51:00,75.4,39.1,26.69,ENE,62,0.0,0.0,27,0.00,CLR,,0.00,WeatherDisplay:10.37,2013-08-30 01:51:00,
2013-08-29 21:52:00,75.2,38.9,26.69,ENE,62,0.0,0.0,27,0.00,CLR,,0.00,WeatherDisplay:10.37,2013-08-30 01:52:00,
2013-08-29 21:54:00,75.2,38.9,26.69,ENE,62,0.0,0.0,27,0.00,CLR,,0.00,WeatherDisplay:10.37,2013-08-30 01:54:00,
2013-08-29 21:55:00,75.2,38.9,26.69,ENE,62,0.0,0.0,27,0.00,CLR,,0.00,WeatherDisplay:10.37,2013-08-30 01:55:00,
2013-08-29 21:56:00,75.2,38.9,26.69,ENE,62,0.0,0.0,27,0.00,CLR,,0.00,WeatherDisplay:10.37,2013-08-30 01:56:00,
2013-08-29 21:57:00,75.2,39.8,26.69,ENE,62,0.0,0.0,28,0.00,CLR,,0.00,WeatherDisplay:10.37,2013-08-30 01:57:00,
2013-08-29 21:59:00,75.2,39.8,26.69,ENE,62,0.0,0.0,28,0.00,CLR,,0.00,WeatherDisplay:10.37,2013-08-30 01:59:00,
2013-08-29 22:00:00,75.0,39.7,26.69,ENE,62,0.0,0.0,28,0.00,CLR,,0.00,WeatherDisplay:10.37,2013-08-30 02:00:00,
2013-08-29 22:01:00,75.0,39.7,26.69,ENE,62,0.0,0.0,28,0.00,CLR,,0.00,WeatherDisplay:10.37,2013-08-30 02:01:00,
2013-08-29 22:03:00,75.0,39.7,26.69,ENE,62,0.0,0.0,28,0.00,CLR,,0.00,WeatherDisplay:10.37,2013-08-30 02:03:00,
2013-08-29 22:04:00,75.0,40.6,26.69,ENE,62,0.0,0.0,29,0.00,CLR,,0.00,WeatherDisplay:10.37,2013-08-30 02:04:00,
2013-08-29 22:05:00,75.0,40.6,26.69,ENE,62,0.0,0.0,29,0.00,CLR,,0.00,WeatherDisplay:10.37,2013-08-30 02:05:00,
2013-08-29 22:09:00,75.0,40.6,26.69,ENE,62,0.0,0.0,29,0.00,CLR,,0.00,WeatherDisplay:10.37,2013-08-30 02:09:00,
2013-08-29 22:11:00,75.0,40.6,26.69,ENE,62,0.0,0.0,29,0.00,CLR,,0.00,WeatherDisplay:10.37,2013-08-30 02:11:00,
2013-08-29 22:12:00,75.0,40.6,26.69,ENE,62,0.0,0.0,29,0.00,CLR,,0.00,WeatherDisplay:10.37,2013-08-30 02:12:00,
2013-08-29 22:13:00,75.0,40.6,26.69,ENE,62,0.0,0.0,29,0.00,CLR,,0.00,WeatherDisplay:10.37,2013-08-30 02:13:00,
2013-08-29 22:15:00,75.0,40.6,26.69,ENE,62,0.0,0.0,29,0.00,CLR,,0.00,WeatherDisplay:10.37,2013-08-30 02:15:00,
2013-08-29 22:16:00,75.0,40.6,26.69,ENE,62,0.0,0.0,29,0.00,CLR,,0.00,WeatherDisplay:10.37,2013-08-30 02:16:00,
2013-08-29 22:17:00,75.0,40.6,26.69,ENE,62,0.0,0.0,29,0.00,CLR,,0.00,WeatherDisplay:10.37,2013-08-30 02:17:00,
2013-08-29 22:18:00,75.0,40.6,26.69,ENE,62,0.0,0.0,29,0.00,CLR,,0.00,WeatherDisplay:10.37,2013-08-30 02:18:00,
2013-08-29 22:20:00,75.0,40.6,26.69,ENE,62,0.0,0.0,29,0.00,CLR,,0.00,WeatherDisplay:10.37,2013-08-30 02:20:00,
2013-08-29 22:21:00,75.0,40.6,26.69,ENE,62,0.0,0.0,29,0.00,CLR,,0.00,WeatherDisplay:10.37,2013-08-30 02:21:00,
2013-08-29 22:22:00,75.0,40.6,26.69,ENE,62,0.0,0.0,29,0.00,CLR,,0.00,WeatherDisplay:10.37,2013-08-30 02:22:00,
2013-08-29 22:23:00,75.0,40.6,26.69,ENE,62,0.0,0.0,29,0.00,CLR,,0.00,WeatherDisplay:10.37,2013-08-30 02:23:00,
2013-08-29 22:24:00,75.0,40.6,26.69,ENE,62,0.0,0.0,29,0.00,CLR,,0.00,WeatherDisplay:10.37,2013-08-30 02:24:00,
2013-08-29 22:25:00,75.0,41.5,26.69,ENE,62,0.0,0.0,30,0.00,CLR,,0.00,WeatherDisplay:10.37,2013-08-30 02:25:00,
2013-08-29 22:26:00,75.0,41.5,26.69,ENE,62,0.0,0.0,30,0.00,CLR,,0.00,WeatherDisplay:10.37,2013-08-30 02:26:00,
2013-08-29 22:29:00,74.8,42.2,26.69,ENE,62,0.0,0.0,31,0.00,CLR,,0.00,WeatherDisplay:10.37,2013-08-30 02:29:00,
2013-08-29 22:30:00,74.8,42.2,26.69,ENE,62,0.0,0.0,31,0.00,CLR,,0.00,WeatherDisplay:10.37,2013-08-30 02:30:00,
2013-08-29 22:31:00,74.7,42.0,26.69,ENE,62,0.0,0.0,31,0.00,CLR,,0.00,WeatherDisplay:10.37,2013-08-30 02:31:00,
2013-08-29 22:34:00,74.7,42.0,26.69,ENE,62,0.0,0.0,31,0.00,CLR,,0.00,WeatherDisplay:10.37,2013-08-30 02:34:00,
2013-08-29 22:35:00,74.5,41.9,26.69,ENE,62,0.0,0.0,31,0.00,CLR,,0.00,WeatherDisplay:10.37,2013-08-30 02:35:00,
2013-08-29 22:37:00,74.5,41.9,26.69,ENE,62,0.0,0.0,31,0.00,CLR,,0.00,WeatherDisplay:10.37,2013-08-30 02:37:00,
2013-08-29 22:38:00,74.5,41.9,26.69,ENE,62,0.0,0.0,31,0.00,CLR,,0.00,WeatherDisplay:10.37,2013-08-30 02:38:00,
2013-08-29 22:40:00,74.3,41.7,26.69,ENE,62,0.0,0.0,31,0.00,CLR,,0.00,WeatherDisplay:10.37,2013-08-30 02:40:00,
2013-08-29 22:41:00,74.3,41.7,26.69,ENE,62,0.0,0.0,31,0.00,CLR,,0.00,WeatherDisplay:10.37,2013-08-30 02:41:00,
2013-08-29 22:43:00,74.3,41.7,26.69,ENE,62,0.0,0.0,31,0.00,CLR,,0.00,WeatherDisplay:10.37,2013-08-30 02:43:00,
2013-08-29 22:44:00,74.3,41.7,26.69,ENE,62,0.0,0.0,31,0.00,CLR,,0.00,WeatherDisplay:10.37,2013-08-30 02:44:00,
2013-08-29 22:46:00,74.1,41.5,26.69,ENE,62,0.0,0.0,31,0.00,CLR,,0.00,WeatherDisplay:10.37,2013-08-30 02:46:00,
2013-08-29 22:48:00,73.9,41.4,26.69,ENE,62,0.0,0.0,31,0.00,CLR,,0.00,WeatherDisplay:10.37,2013-08-30 02:48:00,
2013-08-29 22:50:00,73.9,41.4,0.00,ENE,62,0.0,0.0,31,0.00,CLR,,0.00,WeatherDisplay:10.37,2013-08-30 02:50:00,
2013-08-29 22:51:00,73.9,42.2,26.69,ENE,62,0.0,0.0,32,0.00,CLR,,0.00,WeatherDisplay:10.37,2013-08-30 02:51:00,
2013-08-29 22:53:00,73.8,42.0,26.69,ENE,62,0.0,0.0,32,0.00,CLR,,0.00,WeatherDisplay:10.37,2013-08-30 02:53:00,
2013-08-29 22:55:00,73.8,42.0,26.69,ENE,62,0.0,0.0,32,0.00,CLR,,0.00,WeatherDisplay:10.37,2013-08-30 02:55:00,
2013-08-29 22:58:00,73.8,42.0,26.69,ENE,62,0.0,0.0,32,0.00,CLR,,0.00,WeatherDisplay:10.37,2013-08-30 02:58:00,
2013-08-29 23:02:00,73.6,41.9,26.69,ENE,62,0.0,0.0,32,0.00,CLR,,0.00,WeatherDisplay:10.37,2013-08-30 03:02:00,
2013-08-29 23:03:00,73.6,41.9,26.69,ENE,62,0.0,0.0,32,0.00,CLR,,0.00,WeatherDisplay:10.37,2013-08-30 03:03:00,
2013-08-29 23:04:00,73.6,41.9,26.69,ENE,62,0.0,0.0,32,0.00,CLR,,0.00,WeatherDisplay:10.37,2013-08-30 03:04:00,
2013-08-29 23:05:00,73.6,41.9,26.69,ENE,62,0.0,0.0,32,0.00,CLR,,0.00,WeatherDisplay:10.37,2013-08-30 03:05:00,
2013-08-29 23:08:00,73.6,41.9,26.69,ENE,62,0.0,0.0,32,0.00,CLR,,0.00,WeatherDisplay:10.37,2013-08-30 03:08:00,
2013-08-29 23:09:00,73.6,41.9,26.69,ENE,62,0.0,0.0,32,0.00,CLR,,0.00,WeatherDisplay:10.37,2013-08-30 03:09:00,
2013-08-29 23:10:00,73.6,41.9,0.00,ENE,62,0.0,0.0,32,0.00,CLR,,0.00,WeatherDisplay:10.37,2013-08-30 03:10:00,
2013-08-29 23:12:00,73.4,41.7,26.69,ENE,62,0.0,0.0,32,0.00,CLR,,0.00,WeatherDisplay:10.37,2013-08-30 03:12:00,
2013-08-29 23:13:00,73.4,41.7,26.69,ENE,62,0.0,0.0,32,0.00,CLR,,0.00,WeatherDisplay:10.37,2013-08-30 03:13:00,
2013-08-29 23:15:00,73.4,41.7,26.69,ENE,62,0.0,0.0,32,0.00,CLR,,0.00,WeatherDisplay:10.37,2013-08-30 03:15:00,
2013-08-29 23:18:00,73.4,41.7,26.69,ENE,62,0.0,0.0,32,0.00,CLR,,0.00,WeatherDisplay:10.37,2013-08-30 03:18:00,
2013-08-29 23:19:00,73.4,41.7,26.69,ENE,62,0.0,0.0,32,0.00,CLR,,0.00,WeatherDisplay:10.37,2013-08-30 03:19:00,
2013-08-29 23:21:00,73.4,41.7,26.69,ENE,62,0.0,0.0,32,0.00,CLR,,0.00,WeatherDisplay:10.37,2013-08-30 03:21:00,
2013-08-29 23:23:00,73.4,41.7,26.69,ENE,62,0.0,0.0,32,0.00,CLR,,0.00,WeatherDisplay:10.37,2013-08-30 03:23:00,
2013-08-29 23:25:00,73.4,41.7,0.00,ENE,62,0.0,0.0,32,0.00,CLR,,0.00,WeatherDisplay:10.37,2013-08-30 03:25:00,
2013-08-29 23:27:00,73.4,41.7,26.69,ENE,62,0.0,0.0,32,0.00,CLR,,0.00,WeatherDisplay:10.37,2013-08-30 03:27:00,
2013-08-29 23:29:00,73.4,41.7,26.69,ENE,62,0.0,0.0,32,0.00,CLR,,0.00,WeatherDisplay:10.37,2013-08-30 03:29:00,
2013-08-29 23:30:00,73.4,41.7,0.00,ENE,62,0.0,0.0,32,0.00,CLR,,0.00,WeatherDisplay:10.37,2013-08-30 03:30:00,
2013-08-29 23:32:00,73.4,41.7,26.69,ENE,62,0.0,0.0,32,0.00,CLR,,0.00,WeatherDisplay:10.37,2013-08-30 03:32:00,
2013-08-29 23:35:00,73.2,42.4,0.00,ENE,62,0.0,0.0,33,0.00,CLR,,0.00,WeatherDisplay:10.37,2013-08-30 03:35:00,
2013-08-29 23:36:00,73.2,42.4,26.69,ENE,62,0.0,0.0,33,0.00,CLR,,0.00,WeatherDisplay:10.37,2013-08-30 03:36:00,
2013-08-29 23:38:00,73.0,42.2,26.69,ENE,62,0.0,0.0,33,0.00,CLR,,0.00,WeatherDisplay:10.37,2013-08-30 03:38:00,
2013-08-29 23:40:00,73.0,42.2,26.69,ENE,62,0.0,0.0,33,0.00,CLR,,0.00,WeatherDisplay:10.37,2013-08-30 03:40:00,
2013-08-29 23:41:00,72.9,42.1,26.69,ENE,62,0.0,0.0,33,0.00,CLR,,0.00,WeatherDisplay:10.37,2013-08-30 03:41:00,
2013-08-29 23:42:00,72.9,42.1,26.69,ENE,62,0.0,0.0,33,0.00,CLR,,0.00,WeatherDisplay:10.37,2013-08-30 03:42:00,
2013-08-29 23:43:00,72.9,42.1,26.69,ENE,62,0.0,0.0,33,0.00,CLR,,0.00,WeatherDisplay:10.37,2013-08-30 03:43:00,
2013-08-29 23:45:00,72.9,42.1,0.00,ENE,62,0.0,0.0,33,0.00,CLR,,0.00,WeatherDisplay:10.37,2013-08-30 03:45:00,
2013-08-29 23:46:00,72.9,42.1,26.69,ENE,62,0.0,0.0,33,0.00,CLR,,0.00,WeatherDisplay:10.37,2013-08-30 03:46:00,
2013-08-29 23:48:00,72.9,42.1,26.69,ENE,62,0.0,0.0,33,0.00,CLR,,0.00,WeatherDisplay:10.37,2013-08-30 03:48:00,
2013-08-29 23:50:00,72.7,41.9,26.69,ENE,62,0.0,0.0,33,0.00,CLR,,0.00,WeatherDisplay:10.37,2013-08-30 03:50:00,
2013-08-29 23:52:00,72.7,41.9,26.69,ENE,62,0.0,0.0,33,0.00,CLR,,0.00,WeatherDisplay:10.37,2013-08-30 03:52:00,
2013-08-29 23:55:00,72.7,41.9,26.69,ENE,62,0.0,0.0,33,0.00,CLR,,0.00,WeatherDisplay:10.37,2013-08-30 03:55:00,
2013-08-29 23:56:00,72.7,41.9,26.69,ENE,62,0.0,0.0,33,0.00,CLR,,0.00,WeatherDisplay:10.37,2013-08-30 03:56:00,
2013-08-29 23:57:00,72.7,41.9,26.69,ENE,62,0.0,0.0,33,0.00,CLR,,0.00,WeatherDisplay:10.37,2013-08-30 03:57:00,
2013-08-29 23:58:00,72.7,41.9,26.69,ENE,62,0.0,0.0,33,0.00,CLR,,0.00,WeatherDisplay:10.37,2013-08-30 03:58:00,
2013-08-29 23:59:00,72.5,41.7,26.69,ENE,62,0.0,0.0,33,0.00,CLR,,0.00,WeatherDisplay:10.37,2013-08-30 03:59:00,